Observation data for Canadian on 09/29/2020      Previous  Date  Next       Current Mesonet Observations  Soil Data  Daily Summary Page  Observations in Plain Language
KCA1 290500Z 30006KT 09/M05 A3024 RMK A01 T00901048  RH  037%=      5-min Rain = 0
KCA1 290501Z 30006KT 09/M05 A3024 RMK A01 T00891048  RH  038%=      5-min Rain = 0
KCA1 290502Z 29006KT 09/M05 A3024 RMK A01 T00881048  RH  038%=      5-min Rain = 0
KCA1 290503Z 30006KT 09/M05 A3024 RMK A01 T00881048  RH  038%=      5-min Rain = 0
KCA1 290504Z 30007KT 09/M05 A3025 RMK A01 T00881048  RH  038%=      5-min Rain = 0
KCA1 290505Z 30007KT 09/M05 A3025 RMK A01 T00871048  RH  038%=      5-min Rain = 0
KCA1 290506Z 29007KT 09/M05 A3025 RMK A01 T00861048  RH  039%=      5-min Rain = 0
KCA1 290507Z 29007KT 09/M05 A3025 RMK A01 T00851047  RH  039%=      5-min Rain = 0
KCA1 290508Z 29006KT 08/M05 A3025 RMK A01 T00841047  RH  039%=      5-min Rain = 0
KCA1 290509Z 30006KT 08/M05 A3025 RMK A01 T00831047  RH  039%=      5-min Rain = 0
KCA1 290510Z 30005KT 08/M05 A3025 RMK A01 T00831047  RH  040%=      5-min Rain = 0
KCA1 290511Z 30006KT 08/M05 A3025 RMK A01 T00821047  RH  040%=      5-min Rain = 0
KCA1 290512Z 30006KT 08/M05 A3025 RMK A01 T00811047  RH  040%=      5-min Rain = 0
KCA1 290513Z 30006KT 08/M05 A3025 RMK A01 T00811046  RH  040%=      5-min Rain = 0
KCA1 290514Z 30006KT 08/M05 A3024 RMK A01 T00801047  RH  040%=      5-min Rain = 0
KCA1 290515Z 30006KT 08/M05 A3024 RMK A01 T00801046  RH  040%=      5-min Rain = 0
KCA1 290516Z 30005KT 08/M05 A3024 RMK A01 T00791047  RH  041%=      5-min Rain = 0
KCA1 290517Z 30006KT 08/M05 A3024 RMK A01 T00791046  RH  041%=      5-min Rain = 0
KCA1 290518Z 30006KT 08/M05 A3024 RMK A01 T00781046  RH  041%=      5-min Rain = 0
KCA1 290519Z 30006KT 08/M05 A3024 RMK A01 T00771046  RH  041%=      5-min Rain = 0
KCA1 290520Z 30006KT 08/M05 A3024 RMK A01 T00771046  RH  041%=      5-min Rain = 0
KCA1 290521Z 30006KT 08/M05 A3024 RMK A01 T00761046  RH  042%=      5-min Rain = 0
KCA1 290522Z 30006KT 08/M05 A3024 RMK A01 T00761046  RH  042%=      5-min Rain = 0
KCA1 290523Z 30006KT 08/M05 A3024 RMK A01 T00751046  RH  042%=      5-min Rain = 0
KCA1 290524Z 30007KT 08/M05 A3024 RMK A01 T00751046  RH  042%=      5-min Rain = 0
KCA1 290525Z 30007KT 07/M05 A3024 RMK A01 T00741046  RH  042%=      5-min Rain = 0
KCA1 290526Z 30007KT 07/M05 A3024 RMK A01 T00741046  RH  042%=      5-min Rain = 0
KCA1 290527Z 30007KT 08/M05 A3024 RMK A01 T00751046  RH  042%=      5-min Rain = 0
KCA1 290528Z 30007KT 08/M05 A3024 RMK A01 T00751046  RH  042%=      5-min Rain = 0
KCA1 290529Z 30006KT 07/M05 A3024 RMK A01 T00741046  RH  042%=      5-min Rain = 0
KCA1 290530Z 30006KT 07/M05 A3024 RMK A01 T00741046  RH  042%=      5-min Rain = 0
KCA1 290531Z 30007KT 07/M05 A3024 RMK A01 T00741046  RH  042%=      5-min Rain = 0
KCA1 290532Z 30006KT 08/M05 A3024 RMK A01 T00751046  RH  042%=      5-min Rain = 0
KCA1 290533Z 29006KT 08/M05 A3024 RMK A01 T00751046  RH  042%=      5-min Rain = 0
KCA1 290534Z 30006KT 08/M05 A3024 RMK A01 T00751046  RH  042%=      5-min Rain = 0
KCA1 290535Z 30006KT 08/M05 A3024 RMK A01 T00751046  RH  042%=      5-min Rain = 0
KCA1 290536Z 30006KT 08/M05 A3024 RMK A01 T00751046  RH  042%=      5-min Rain = 0
KCA1 290537Z 30006KT 08/M05 A3024 RMK A01 T00751046  RH  042%=      5-min Rain = 0
KCA1 290538Z 30006KT 08/M05 A3024 RMK A01 T00751046  RH  042%=      5-min Rain = 0
KCA1 290539Z 30006KT 08/M05 A3024 RMK A01 T00761046  RH  042%=      5-min Rain = 0
KCA1 290540Z 30006KT 08/M05 A3024 RMK A01 T00761046  RH  042%=      5-min Rain = 0
KCA1 290541Z 30006KT 08/M05 A3024 RMK A01 T00761046  RH  042%=      5-min Rain = 0
KCA1 290542Z 30006KT 08/M05 A3024 RMK A01 T00761046  RH  042%=      5-min Rain = 0
KCA1 290543Z 30006KT 08/M05 A3024 RMK A01 T00751046  RH  042%=      5-min Rain = 0
KCA1 290544Z 30006KT 07/M05 A3024 RMK A01 T00741047  RH  042%=      5-min Rain = 0
KCA1 290545Z 30006KT 07/M05 A3024 RMK A01 T00741046  RH  042%=      5-min Rain = 0
KCA1 290546Z 30006KT 07/M05 A3024 RMK A01 T00731046  RH  042%=      5-min Rain = 0
KCA1 290547Z 30006KT 07/M05 A3024 RMK A01 T00731047  RH  042%=      5-min Rain = 0
KCA1 290548Z 30007KT 07/M05 A3024 RMK A01 T00731047  RH  042%=      5-min Rain = 0
KCA1 290549Z 30007KT 08/M05 A3024 RMK A01 T00751047  RH  042%=      5-min Rain = 0
KCA1 290550Z 30006KT 08/M05 A3024 RMK A01 T00761046  RH  042%=      5-min Rain = 0
KCA1 290551Z 30007KT 08/M05 A3024 RMK A01 T00771047  RH  041%=      5-min Rain = 0
KCA1 290552Z 30007KT 08/M05 A3024 RMK A01 T00781047  RH  041%=      5-min Rain = 0
KCA1 290553Z 30007KT 08/M05 A3024 RMK A01 T00791046  RH  041%=      5-min Rain = 0
KCA1 290554Z 30005KT 08/M05 A3024 RMK A01 T00791047  RH  041%=      5-min Rain = 0
KCA1 290555Z 30005KT 08/M05 A3024 RMK A01 T00791047  RH  041%=      5-min Rain = 0
KCA1 290556Z 30005KT 08/M05 A3024 RMK A01 T00771047  RH  041%=      5-min Rain = 0
KCA1 290557Z 30005KT 08/M05 A3024 RMK A01 T00761047  RH  041%=      5-min Rain = 0
KCA1 290558Z 30005KT 08/M05 A3024 RMK A01 T00761046  RH  042%=      5-min Rain = 0
KCA1 290559Z 30005KT 08/M05 A3024 RMK A01 T00751046  RH  042%=      5-min Rain = 0
KCA1 290600Z 30005KT 07/M05 A3024 RMK A01 T00741047  RH  042%=      5-min Rain = 0
KCA1 290601Z 30005KT 07/M05 A3024 RMK A01 T00731047  RH  042%=      5-min Rain = 0
KCA1 290602Z 30006KT 07/M05 A3024 RMK A01 T00731046  RH  043%=      5-min Rain = 0
KCA1 290603Z 30006KT 07/M05 A3024 RMK A01 T00721047  RH  043%=      5-min Rain = 0
KCA1 290604Z 30006KT 07/M05 A3024 RMK A01 T00721047  RH  043%=      5-min Rain = 0
KCA1 290605Z 30006KT 07/M05 A3024 RMK A01 T00731047  RH  042%=      5-min Rain = 0
KCA1 290606Z 30006KT 07/M05 A3024 RMK A01 T00721047  RH  042%=      5-min Rain = 0
KCA1 290607Z 30006KT 07/M05 A3024 RMK A01 T00731047  RH  042%=      5-min Rain = 0
KCA1 290608Z 30005KT 07/M05 A3024 RMK A01 T00741047  RH  042%=      5-min Rain = 0
KCA1 290609Z 30006KT 08/M05 A3024 RMK A01 T00751047  RH  042%=      5-min Rain = 0
KCA1 290610Z 30005KT 08/M05 A3024 RMK A01 T00761047  RH  042%=      5-min Rain = 0
KCA1 290611Z 30005KT 08/M05 A3024 RMK A01 T00761047  RH  041%=      5-min Rain = 0
KCA1 290612Z 30004KT 08/M05 A3024 RMK A01 T00751047  RH  041%=      5-min Rain = 0
KCA1 290613Z 30005KT 07/M05 A3024 RMK A01 T00741048  RH  042%=      5-min Rain = 0
KCA1 290614Z 30005KT 07/M05 A3024 RMK A01 T00741048  RH  042%=      5-min Rain = 0
KCA1 290615Z 30006KT 08/M05 A3024 RMK A01 T00751047  RH  042%=      5-min Rain = 0
KCA1 290616Z 30006KT 08/M05 A3024 RMK A01 T00751047  RH  042%=      5-min Rain = 0
KCA1 290617Z 29007KT 08/M05 A3024 RMK A01 T00751047  RH  041%=      5-min Rain = 0
KCA1 290618Z 30007KT 08/M05 A3024 RMK A01 T00771047  RH  041%=      5-min Rain = 0
KCA1 290619Z 30007KT 08/M05 A3024 RMK A01 T00781047  RH  041%=      5-min Rain = 0
KCA1 290620Z 29005KT 08/M05 A3024 RMK A01 T00781047  RH  041%=      5-min Rain = 0
KCA1 290621Z 30005KT 08/M05 A3024 RMK A01 T00771048  RH  041%=      5-min Rain = 0
KCA1 290622Z 30004KT 08/M05 A3024 RMK A01 T00761048  RH  041%=      5-min Rain = 0
KCA1 290623Z 29005KT 08/M05 A3024 RMK A01 T00751048  RH  041%=      5-min Rain = 0
KCA1 290624Z 30004KT 07/M05 A3024 RMK A01 T00741048  RH  042%=      5-min Rain = 0
KCA1 290625Z 30005KT 07/M05 A3024 RMK A01 T00731048  RH  042%=      5-min Rain = 0
KCA1 290626Z 30005KT 07/M05 A3024 RMK A01 T00731048  RH  042%=      5-min Rain = 0
KCA1 290627Z 30005KT 07/M05 A3024 RMK A01 T00741048  RH  042%=      5-min Rain = 0
KCA1 290628Z 29006KT 07/M05 A3024 RMK A01 T00731047  RH  042%=      5-min Rain = 0
KCA1 290629Z 29006KT 07/M05 A3024 RMK A01 T00731047  RH  042%=      5-min Rain = 0
KCA1 290630Z 30005KT 07/M05 A3024 RMK A01 T00721048  RH  042%=      5-min Rain = 0
KCA1 290631Z 30005KT 07/M05 A3024 RMK A01 T00721047  RH  042%=      5-min Rain = 0
KCA1 290632Z 30005KT 07/M05 A3024 RMK A01 T00701047  RH  043%=      5-min Rain = 0
KCA1 290633Z 30006KT 07/M05 A3024 RMK A01 T00691047  RH  043%=      5-min Rain = 0
KCA1 290634Z 30006KT 07/M05 A3024 RMK A01 T00691047  RH  043%=      5-min Rain = 0
KCA1 290635Z 30005KT 07/M05 A3024 RMK A01 T00701047  RH  043%=      5-min Rain = 0
KCA1 290636Z 30005KT 07/M05 A3024 RMK A01 T00701046  RH  043%=      5-min Rain = 0
KCA1 290637Z 30005KT 07/M05 A3024 RMK A01 T00701046  RH  043%=      5-min Rain = 0
KCA1 290638Z 30005KT 07/M05 A3024 RMK A01 T00701046  RH  043%=      5-min Rain = 0
KCA1 290639Z 30005KT 07/M05 A3024 RMK A01 T00691046  RH  044%=      5-min Rain = 0
KCA1 290640Z 30005KT 07/M05 A3024 RMK A01 T00691046  RH  044%=      5-min Rain = 0
KCA1 290641Z 30006KT 07/M05 A3024 RMK A01 T00681046  RH  044%=      5-min Rain = 0
KCA1 290642Z 30005KT 07/M05 A3024 RMK A01 T00681046  RH  044%=      5-min Rain = 0
KCA1 290643Z 30005KT 07/M05 A3024 RMK A01 T00681046  RH  044%=      5-min Rain = 0
KCA1 290644Z 30006KT 07/M05 A3024 RMK A01 T00681046  RH  044%=      5-min Rain = 0
KCA1 290645Z 30006KT 07/M05 A3024 RMK A01 T00681046  RH  044%=      5-min Rain = 0
KCA1 290646Z 30006KT 07/M05 A3024 RMK A01 T00681047  RH  044%=      5-min Rain = 0
KCA1 290647Z 30006KT 07/M05 A3024 RMK A01 T00681046  RH  044%=      5-min Rain = 0
KCA1 290648Z 30006KT 07/M05 A3024 RMK A01 T00691046  RH  044%=      5-min Rain = 0
KCA1 290649Z 31006KT 07/M05 A3024 RMK A01 T00691046  RH  044%=      5-min Rain = 0
KCA1 290650Z 30005KT 07/M05 A3024 RMK A01 T00691047  RH  043%=      5-min Rain = 0
KCA1 290651Z 30006KT 07/M05 A3024 RMK A01 T00701046  RH  043%=      5-min Rain = 0
KCA1 290652Z 30006KT 07/M05 A3024 RMK A01 T00701047  RH  043%=      5-min Rain = 0
KCA1 290653Z 30006KT 07/M05 A3024 RMK A01 T00711046  RH  043%=      5-min Rain = 0
KCA1 290654Z 30006KT 07/M05 A3024 RMK A01 T00711047  RH  043%=      5-min Rain = 0
KCA1 290655Z 30005KT 07/M05 A3024 RMK A01 T00721047  RH  043%=      5-min Rain = 0
KCA1 290656Z 30005KT 07/M05 A3024 RMK A01 T00721047  RH  043%=      5-min Rain = 0
KCA1 290657Z 30004KT 07/M05 A3024 RMK A01 T00721047  RH  043%=      5-min Rain = 0
KCA1 290658Z 29005KT 07/M05 A3024 RMK A01 T00721047  RH  043%=      5-min Rain = 0
KCA1 290659Z 30005KT 07/M05 A3024 RMK A01 T00711047  RH  043%=      5-min Rain = 0
KCA1 290700Z 29005KT 07/M05 A3024 RMK A01 T00701047  RH  043%=      5-min Rain = 0
KCA1 290701Z 29004KT 07/M05 A3024 RMK A01 T00701047  RH  043%=      5-min Rain = 0
KCA1 290702Z 28004KT 07/M05 A3024 RMK A01 T00691047  RH  044%=      5-min Rain = 0
KCA1 290703Z 27004KT 07/M05 A3024 RMK A01 T00671046  RH  044%=      5-min Rain = 0
KCA1 290704Z 27003KT 07/M05 A3024 RMK A01 T00651046  RH  045%=      5-min Rain = 0
KCA1 290705Z 28004KT 06/M05 A3024 RMK A01 T00631045  RH  046%=      5-min Rain = 0
KCA1 290706Z 28004KT 06/M05 A3024 RMK A01 T00611045  RH  047%=      5-min Rain = 0
KCA1 290707Z 28003KT 06/M04 A3024 RMK A01 T00601044  RH  047%=      5-min Rain = 0
KCA1 290708Z 27004KT 06/M04 A3024 RMK A01 T00581043  RH  048%=      5-min Rain = 0
KCA1 290709Z 28004KT 06/M04 A3024 RMK A01 T00581042  RH  049%=      5-min Rain = 0
KCA1 290710Z 28004KT 06/M04 A3024 RMK A01 T00561042  RH  049%=      5-min Rain = 0
KCA1 290711Z 29004KT 06/M04 A3024 RMK A01 T00551042  RH  050%=      5-min Rain = 0
KCA1 290712Z 29004KT 05/M04 A3024 RMK A01 T00541042  RH  050%=      5-min Rain = 0
KCA1 290713Z 30005KT 05/M04 A3024 RMK A01 T00541042  RH  050%=      5-min Rain = 0
KCA1 290714Z 30004KT 05/M04 A3024 RMK A01 T00541042  RH  050%=      5-min Rain = 0
KCA1 290715Z 30004KT 06/M04 A3024 RMK A01 T00551042  RH  050%=      5-min Rain = 0
KCA1 290716Z 29004KT 06/M04 A3024 RMK A01 T00551043  RH  049%=      5-min Rain = 0
KCA1 290717Z 29003KT 06/M04 A3024 RMK A01 T00561043  RH  049%=      5-min Rain = 0
KCA1 290718Z 28004KT 06/M04 A3024 RMK A01 T00561043  RH  049%=      5-min Rain = 0
KCA1 290719Z 28004KT 06/M04 A3024 RMK A01 T00561042  RH  049%=      5-min Rain = 0
KCA1 290720Z 28004KT 06/M04 A3024 RMK A01 T00551041  RH  050%=      5-min Rain = 0
KCA1 290721Z 29004KT 05/M04 A3024 RMK A01 T00531040  RH  051%=      5-min Rain = 0
KCA1 290722Z 29004KT 05/M04 A3024 RMK A01 T00521040  RH  051%=      5-min Rain = 0
KCA1 290723Z 29004KT 05/M04 A3024 RMK A01 T00521039  RH  052%=      5-min Rain = 0
KCA1 290724Z 29005KT 05/M04 A3024 RMK A01 T00511039  RH  052%=      5-min Rain = 0
KCA1 290725Z 29005KT 05/M04 A3024 RMK A01 T00511039  RH  052%=      5-min Rain = 0
KCA1 290726Z 29005KT 05/M04 A3024 RMK A01 T00511039  RH  052%=      5-min Rain = 0
KCA1 290727Z 29004KT 05/M04 A3023 RMK A01 T00511039  RH  052%=      5-min Rain = 0
KCA1 290728Z 29005KT 05/M04 A3023 RMK A01 T00511039  RH  052%=      5-min Rain = 0
KCA1 290729Z 30005KT 05/M04 A3023 RMK A01 T00511039  RH  052%=      5-min Rain = 0
KCA1 290730Z 30005KT 05/M04 A3023 RMK A01 T00511040  RH  052%=      5-min Rain = 0
KCA1 290731Z 30005KT 05/M04 A3023 RMK A01 T00511039  RH  052%=      5-min Rain = 0
KCA1 290732Z 30005KT 05/M04 A3023 RMK A01 T00511040  RH  052%=      5-min Rain = 0
KCA1 290733Z 30006KT 05/M04 A3023 RMK A01 T00511040  RH  052%=      5-min Rain = 0
KCA1 290734Z 30005KT 05/M04 A3023 RMK A01 T00521041  RH  051%=      5-min Rain = 0
KCA1 290735Z 29005KT 05/M04 A3023 RMK A01 T00521040  RH  051%=      5-min Rain = 0
KCA1 290736Z 29005KT 05/M04 A3023 RMK A01 T00531040  RH  051%=      5-min Rain = 0
KCA1 290737Z 28004KT 05/M04 A3023 RMK A01 T00521040  RH  051%=      5-min Rain = 0
KCA1 290738Z 28004KT 05/M04 A3023 RMK A01 T00511040  RH  052%=      5-min Rain = 0
KCA1 290739Z 29005KT 05/M04 A3023 RMK A01 T00501040  RH  052%=      5-min Rain = 0
KCA1 290740Z 29005KT 05/M04 A3023 RMK A01 T00501039  RH  052%=      5-min Rain = 0
KCA1 290741Z 28004KT 05/M04 A3023 RMK A01 T00501040  RH  052%=      5-min Rain = 0
KCA1 290742Z 28004KT 05/M04 A3023 RMK A01 T00501040  RH  052%=      5-min Rain = 0
KCA1 290743Z 28005KT 05/M04 A3023 RMK A01 T00501039  RH  053%=      5-min Rain = 0
KCA1 290744Z 28004KT 05/M04 A3023 RMK A01 T00501039  RH  053%=      5-min Rain = 0
KCA1 290745Z 28005KT 05/M04 A3023 RMK A01 T00501038  RH  053%=      5-min Rain = 0
KCA1 290746Z 27005KT 05/M04 A3023 RMK A01 T00491038  RH  053%=      5-min Rain = 0
KCA1 290747Z 28005KT 05/M04 A3023 RMK A01 T00481038  RH  054%=      5-min Rain = 0
KCA1 290748Z 28006KT 05/M04 A3023 RMK A01 T00461038  RH  054%=      5-min Rain = 0
KCA1 290749Z 29006KT 05/M04 A3023 RMK A01 T00461037  RH  055%=      5-min Rain = 0
KCA1 290750Z 30006KT 05/M04 A3023 RMK A01 T00451037  RH  055%=      5-min Rain = 0
KCA1 290751Z 30006KT 05/M04 A3023 RMK A01 T00451037  RH  055%=      5-min Rain = 0
KCA1 290752Z 30006KT 05/M04 A3023 RMK A01 T00451037  RH  055%=      5-min Rain = 0
KCA1 290753Z 30006KT 05/M04 A3023 RMK A01 T00451037  RH  055%=      5-min Rain = 0
KCA1 290754Z 30006KT 05/M04 A3023 RMK A01 T00461036  RH  055%=      5-min Rain = 0
KCA1 290755Z 30006KT 05/M04 A3023 RMK A01 T00471036  RH  055%=      5-min Rain = 0
KCA1 290756Z 30006KT 05/M04 A3023 RMK A01 T00461036  RH  055%=      5-min Rain = 0
KCA1 290757Z 30006KT 05/M04 A3023 RMK A01 T00451037  RH  055%=      5-min Rain = 0
KCA1 290758Z 31006KT 05/M04 A3023 RMK A01 T00451037  RH  056%=      5-min Rain = 0
KCA1 290759Z 31006KT 04/M04 A3023 RMK A01 T00441037  RH  056%=      5-min Rain = 0
KCA1 290800Z 31006KT 04/M04 A3023 RMK A01 T00421038  RH  056%=      5-min Rain = 0
KCA1 290801Z 31006KT 04/M04 A3023 RMK A01 T00431038  RH  056%=      5-min Rain = 0
KCA1 290802Z 31006KT 04/M04 A3023 RMK A01 T00431038  RH  056%=      5-min Rain = 0
KCA1 290803Z 31006KT 04/M04 A3023 RMK A01 T00421038  RH  056%=      5-min Rain = 0
KCA1 290804Z 32006KT 04/M04 A3023 RMK A01 T00431038  RH  056%=      5-min Rain = 0
KCA1 290805Z 32006KT 04/M04 A3023 RMK A01 T00441038  RH  055%=      5-min Rain = 0
KCA1 290806Z 31006KT 05/M04 A3023 RMK A01 T00451040  RH  054%=      5-min Rain = 0
KCA1 290807Z 31006KT 05/M04 A3023 RMK A01 T00471039  RH  054%=      5-min Rain = 0
KCA1 290808Z 32006KT 05/M04 A3023 RMK A01 T00481039  RH  053%=      5-min Rain = 0
KCA1 290809Z 31006KT 05/M04 A3023 RMK A01 T00481040  RH  053%=      5-min Rain = 0
KCA1 290810Z 31006KT 05/M04 A3023 RMK A01 T00491041  RH  052%=      5-min Rain = 0
KCA1 290811Z 31006KT 05/M04 A3023 RMK A01 T00501041  RH  052%=      5-min Rain = 0
KCA1 290812Z 31007KT 05/M04 A3023 RMK A01 T00511041  RH  051%=      5-min Rain = 0
KCA1 290813Z 31006KT 05/M04 A3023 RMK A01 T00521043  RH  051%=      5-min Rain = 0
KCA1 290814Z 31007KT 05/M04 A3023 RMK A01 T00531043  RH  050%=      5-min Rain = 0
KCA1 290815Z 31007KT 06/M04 A3023 RMK A01 T00551043  RH  049%=      5-min Rain = 0
KCA1 290816Z 31006KT 06/M04 A3023 RMK A01 T00561043  RH  049%=      5-min Rain = 0
KCA1 290817Z 31006KT 06/M04 A3023 RMK A01 T00571044  RH  048%=      5-min Rain = 0
KCA1 290818Z 31006KT 06/M04 A3023 RMK A01 T00571044  RH  048%=      5-min Rain = 0
KCA1 290819Z 31005KT 06/M05 A3023 RMK A01 T00571045  RH  048%=      5-min Rain = 0
KCA1 290820Z 31005KT 06/M05 A3023 RMK A01 T00581045  RH  048%=      5-min Rain = 0
KCA1 290821Z 31005KT 06/M05 A3023 RMK A01 T00581045  RH  047%=      5-min Rain = 0
KCA1 290822Z 30005KT 06/M05 A3023 RMK A01 T00581045  RH  047%=      5-min Rain = 0
KCA1 290823Z 30005KT 06/M05 A3023 RMK A01 T00591046  RH  047%=      5-min Rain = 0
KCA1 290824Z 29006KT 06/M05 A3023 RMK A01 T00601045  RH  047%=      5-min Rain = 0
KCA1 290825Z 30006KT 06/M05 A3023 RMK A01 T00601046  RH  047%=      5-min Rain = 0
KCA1 290826Z 29006KT 06/M05 A3023 RMK A01 T00611046  RH  046%=      5-min Rain = 0
KCA1 290827Z 29007KT 06/M05 A3023 RMK A01 T00611046  RH  046%=      5-min Rain = 0
KCA1 290828Z 29007KT 06/M05 A3023 RMK A01 T00621046  RH  046%=      5-min Rain = 0
KCA1 290829Z 29007KT 06/M05 A3022 RMK A01 T00621046  RH  046%=      5-min Rain = 0
KCA1 290830Z 29007KT 06/M05 A3022 RMK A01 T00631046  RH  046%=      5-min Rain = 0
KCA1 290831Z 29007KT 06/M05 A3023 RMK A01 T00631046  RH  045%=      5-min Rain = 0
KCA1 290832Z 29007KT 06/M05 A3023 RMK A01 T00631046  RH  045%=      5-min Rain = 0
KCA1 290833Z 29006KT 06/M05 A3023 RMK A01 T00641047  RH  045%=      5-min Rain = 0
KCA1 290834Z 29007KT 06/M05 A3023 RMK A01 T00641047  RH  045%=      5-min Rain = 0
KCA1 290835Z 29006KT 06/M05 A3023 RMK A01 T00641047  RH  045%=      5-min Rain = 0
KCA1 290836Z 29006KT 06/M05 A3023 RMK A01 T00631047  RH  045%=      5-min Rain = 0
KCA1 290837Z 30006KT 06/M05 A3022 RMK A01 T00621047  RH  045%=      5-min Rain = 0
KCA1 290838Z 30006KT 06/M05 A3022 RMK A01 T00621047  RH  046%=      5-min Rain = 0
KCA1 290839Z 30006KT 06/M05 A3022 RMK A01 T00611048  RH  046%=      5-min Rain = 0
KCA1 290840Z 30005KT 06/M05 A3022 RMK A01 T00601047  RH  046%=      5-min Rain = 0
KCA1 290841Z 30006KT 06/M05 A3022 RMK A01 T00601047  RH  046%=      5-min Rain = 0
KCA1 290842Z 30006KT 06/M05 A3022 RMK A01 T00591047  RH  046%=      5-min Rain = 0
KCA1 290843Z 30005KT 06/M05 A3022 RMK A01 T00591047  RH  046%=      5-min Rain = 0
KCA1 290844Z 30006KT 06/M05 A3022 RMK A01 T00581047  RH  047%=      5-min Rain = 0
KCA1 290845Z 30006KT 06/M05 A3022 RMK A01 T00571047  RH  047%=      5-min Rain = 0
KCA1 290846Z 30006KT 06/M05 A3022 RMK A01 T00561047  RH  047%=      5-min Rain = 0
KCA1 290847Z 30005KT 06/M05 A3022 RMK A01 T00551047  RH  048%=      5-min Rain = 0
KCA1 290848Z 30006KT 05/M05 A3022 RMK A01 T00541046  RH  048%=      5-min Rain = 0
KCA1 290849Z 30006KT 05/M05 A3022 RMK A01 T00531046  RH  049%=      5-min Rain = 0
KCA1 290850Z 30006KT 05/M05 A3022 RMK A01 T00521046  RH  049%=      5-min Rain = 0
KCA1 290851Z 30006KT 05/M05 A3022 RMK A01 T00521046  RH  049%=      5-min Rain = 0
KCA1 290852Z 30006KT 05/M05 A3022 RMK A01 T00521046  RH  049%=      5-min Rain = 0
KCA1 290853Z 30006KT 05/M05 A3022 RMK A01 T00521046  RH  049%=      5-min Rain = 0
KCA1 290854Z 30006KT 05/M05 A3022 RMK A01 T00511046  RH  050%=      5-min Rain = 0
KCA1 290855Z 30006KT 05/M05 A3022 RMK A01 T00501046  RH  050%=      5-min Rain = 0
KCA1 290856Z 30006KT 05/M05 A3022 RMK A01 T00501046  RH  050%=      5-min Rain = 0
KCA1 290857Z 30006KT 05/M05 A3022 RMK A01 T00501046  RH  050%=      5-min Rain = 0
KCA1 290858Z 30006KT 05/M05 A3022 RMK A01 T00511046  RH  049%=      5-min Rain = 0
KCA1 290859Z 30006KT 05/M05 A3022 RMK A01 T00521046  RH  049%=      5-min Rain = 0
KCA1 290900Z 30006KT 05/M05 A3022 RMK A01 T00521046  RH  049%=      5-min Rain = 0
KCA1 290901Z 30006KT 05/M05 A3022 RMK A01 T00531046  RH  049%=      5-min Rain = 0
KCA1 290902Z 30006KT 05/M05 A3022 RMK A01 T00521047  RH  049%=      5-min Rain = 0
KCA1 290903Z 30007KT 05/M05 A3022 RMK A01 T00531047  RH  049%=      5-min Rain = 0
KCA1 290904Z 30007KT 05/M05 A3022 RMK A01 T00541046  RH  048%=      5-min Rain = 0
KCA1 290905Z 30007KT 05/M05 A3022 RMK A01 T00541046  RH  048%=      5-min Rain = 0
KCA1 290906Z 30007KT 05/M05 A3022 RMK A01 T00541046  RH  048%=      5-min Rain = 0
KCA1 290907Z 30007KT 05/M05 A3022 RMK A01 T00541046  RH  048%=      5-min Rain = 0
KCA1 290908Z 30007KT 05/M05 A3022 RMK A01 T00541046  RH  048%=      5-min Rain = 0
KCA1 290909Z 30007KT 05/M05 A3022 RMK A01 T00541046  RH  049%=      5-min Rain = 0
KCA1 290910Z 30007KT 05/M05 A3022 RMK A01 T00541047  RH  048%=      5-min Rain = 0
KCA1 290911Z 30007KT 05/M05 A3022 RMK A01 T00541046  RH  048%=      5-min Rain = 0
KCA1 290912Z 30008KT 05/M05 A3022 RMK A01 T00541046  RH  048%=      5-min Rain = 0
KCA1 290913Z 30007KT 06/M05 A3022 RMK A01 T00551046  RH  048%=      5-min Rain = 0
KCA1 290914Z 30007KT 06/M05 A3022 RMK A01 T00551046  RH  048%=      5-min Rain = 0
KCA1 290915Z 30007KT 06/M05 A3022 RMK A01 T00561046  RH  048%=      5-min Rain = 0
KCA1 290916Z 30007KT 06/M05 A3022 RMK A01 T00561046  RH  048%=      5-min Rain = 0
KCA1 290917Z 30007KT 06/M05 A3022 RMK A01 T00561046  RH  048%=      5-min Rain = 0
KCA1 290918Z 30007KT 06/M05 A3022 RMK A01 T00561046  RH  048%=      5-min Rain = 0
KCA1 290919Z 30007KT 06/M05 A3022 RMK A01 T00561046  RH  048%=      5-min Rain = 0
KCA1 290920Z 30007KT 06/M05 A3022 RMK A01 T00561046  RH  048%=      5-min Rain = 0
KCA1 290921Z 30007KT 06/M05 A3022 RMK A01 T00561046  RH  048%=      5-min Rain = 0
KCA1 290922Z 30007KT 06/M05 A3022 RMK A01 T00561046  RH  048%=      5-min Rain = 0
KCA1 290923Z 30007KT 06/M05 A3022 RMK A01 T00561045  RH  048%=      5-min Rain = 0
KCA1 290924Z 31007KT 06/M05 A3022 RMK A01 T00561045  RH  048%=      5-min Rain = 0
KCA1 290925Z 31007KT 06/M05 A3022 RMK A01 T00551045  RH  048%=      5-min Rain = 0
KCA1 290926Z 31007KT 06/M05 A3022 RMK A01 T00551045  RH  049%=      5-min Rain = 0
KCA1 290927Z 31007KT 05/M05 A3022 RMK A01 T00541045  RH  049%=      5-min Rain = 0
KCA1 290928Z 31006KT 05/M04 A3022 RMK A01 T00531044  RH  049%=      5-min Rain = 0
KCA1 290929Z 31006KT 05/M04 A3022 RMK A01 T00521044  RH  050%=      5-min Rain = 0
KCA1 290930Z 31007KT 05/M05 A3022 RMK A01 T00521045  RH  050%=      5-min Rain = 0
KCA1 290931Z 30007KT 05/M04 A3022 RMK A01 T00521044  RH  050%=      5-min Rain = 0
KCA1 290932Z 30007KT 05/M04 A3022 RMK A01 T00521044  RH  050%=      5-min Rain = 0
KCA1 290933Z 30007KT 05/M04 A3022 RMK A01 T00521044  RH  050%=      5-min Rain = 0
KCA1 290934Z 30007KT 05/M04 A3022 RMK A01 T00521044  RH  050%=      5-min Rain = 0
KCA1 290935Z 30007KT 05/M04 A3022 RMK A01 T00521044  RH  050%=      5-min Rain = 0
KCA1 290936Z 30007KT 05/M04 A3022 RMK A01 T00531044  RH  050%=      5-min Rain = 0
KCA1 290937Z 30007KT 05/M04 A3022 RMK A01 T00531044  RH  050%=      5-min Rain = 0
KCA1 290938Z 30007KT 05/M04 A3022 RMK A01 T00531044  RH  050%=      5-min Rain = 0
KCA1 290939Z 30007KT 05/M04 A3022 RMK A01 T00521044  RH  050%=      5-min Rain = 0
KCA1 290940Z 30007KT 05/M04 A3022 RMK A01 T00521044  RH  050%=      5-min Rain = 0
KCA1 290941Z 30008KT 05/M04 A3021 RMK A01 T00511044  RH  050%=      5-min Rain = 0
KCA1 290942Z 30008KT 05/M04 A3021 RMK A01 T00521044  RH  050%=      5-min Rain = 0
KCA1 290943Z 30007KT 05/M04 A3021 RMK A01 T00521044  RH  050%=      5-min Rain = 0
KCA1 290944Z 30007KT 05/M04 A3021 RMK A01 T00521044  RH  050%=      5-min Rain = 0
KCA1 290945Z 30006KT 05/M04 A3021 RMK A01 T00521044  RH  050%=      5-min Rain = 0
KCA1 290946Z 30006KT 05/M04 A3021 RMK A01 T00511044  RH  050%=      5-min Rain = 0
KCA1 290947Z 30006KT 05/M04 A3021 RMK A01 T00501044  RH  051%=      5-min Rain = 0
KCA1 290948Z 30005KT 05/M04 A3021 RMK A01 T00481044  RH  051%=      5-min Rain = 0
KCA1 290949Z 30005KT 05/M04 A3022 RMK A01 T00461044  RH  052%=      5-min Rain = 0
KCA1 290950Z 30005KT 05/M04 A3022 RMK A01 T00461044  RH  052%=      5-min Rain = 0
KCA1 290951Z 30005KT 05/M04 A3021 RMK A01 T00451043  RH  053%=      5-min Rain = 0
KCA1 290952Z 30005KT 04/M04 A3021 RMK A01 T00441043  RH  053%=      5-min Rain = 0
KCA1 290953Z 30005KT 04/M04 A3021 RMK A01 T00431043  RH  053%=      5-min Rain = 0
KCA1 290954Z 30005KT 04/M04 A3022 RMK A01 T00431043  RH  054%=      5-min Rain = 0
KCA1 290955Z 30005KT 04/M04 A3022 RMK A01 T00421043  RH  054%=      5-min Rain = 0
KCA1 290956Z 30006KT 04/M04 A3022 RMK A01 T00421042  RH  054%=      5-min Rain = 0
KCA1 290957Z 30006KT 04/M04 A3022 RMK A01 T00421042  RH  054%=      5-min Rain = 0
KCA1 290958Z 30006KT 04/M04 A3022 RMK A01 T00421042  RH  054%=      5-min Rain = 0
KCA1 290959Z 30006KT 04/M04 A3022 RMK A01 T00421043  RH  054%=      5-min Rain = 0
KCA1 291000Z 30006KT 04/M04 A3021 RMK A01 T00431042  RH  054%=      5-min Rain = 0
KCA1 291001Z 30006KT 04/M04 A3021 RMK A01 T00431042  RH  054%=      5-min Rain = 0
KCA1 291002Z 30006KT 04/M04 A3021 RMK A01 T00421042  RH  054%=      5-min Rain = 0
KCA1 291003Z 30006KT 04/M04 A3021 RMK A01 T00421042  RH  054%=      5-min Rain = 0
KCA1 291004Z 30006KT 04/M04 A3021 RMK A01 T00421043  RH  054%=      5-min Rain = 0
KCA1 291005Z 30006KT 04/M04 A3021 RMK A01 T00431042  RH  054%=      5-min Rain = 0
KCA1 291006Z 30005KT 04/M04 A3021 RMK A01 T00431042  RH  054%=      5-min Rain = 0
KCA1 291007Z 30005KT 04/M04 A3021 RMK A01 T00431043  RH  054%=      5-min Rain = 0
KCA1 291008Z 30006KT 04/M04 A3021 RMK A01 T00431043  RH  054%=      5-min Rain = 0
KCA1 291009Z 30006KT 04/M04 A3021 RMK A01 T00441043  RH  053%=      5-min Rain = 0
KCA1 291010Z 30006KT 04/M04 A3021 RMK A01 T00441043  RH  053%=      5-min Rain = 0
KCA1 291011Z 30006KT 04/M04 A3021 RMK A01 T00441043  RH  053%=      5-min Rain = 0
KCA1 291012Z 30006KT 05/M04 A3021 RMK A01 T00451043  RH  053%=      5-min Rain = 0
KCA1 291013Z 30006KT 05/M04 A3022 RMK A01 T00451043  RH  053%=      5-min Rain = 0
KCA1 291014Z 30006KT 05/M04 A3022 RMK A01 T00461043  RH  053%=      5-min Rain = 0
KCA1 291015Z 30006KT 05/M04 A3022 RMK A01 T00461043  RH  052%=      5-min Rain = 0
KCA1 291016Z 30007KT 05/M04 A3021 RMK A01 T00461043  RH  052%=      5-min Rain = 0
KCA1 291017Z 30007KT 05/M04 A3021 RMK A01 T00461043  RH  052%=      5-min Rain = 0
KCA1 291018Z 30007KT 05/M04 A3021 RMK A01 T00461043  RH  052%=      5-min Rain = 0
KCA1 291019Z 30006KT 05/M04 A3021 RMK A01 T00461043  RH  052%=      5-min Rain = 0
KCA1 291020Z 30007KT 05/M04 A3022 RMK A01 T00461043  RH  052%=      5-min Rain = 0
KCA1 291021Z 30006KT 05/M04 A3022 RMK A01 T00461044  RH  052%=      5-min Rain = 0
KCA1 291022Z 30006KT 05/M04 A3022 RMK A01 T00461044  RH  052%=      5-min Rain = 0
KCA1 291023Z 30006KT 05/M04 A3022 RMK A01 T00451044  RH  052%=      5-min Rain = 0
KCA1 291024Z 29006KT 04/M04 A3022 RMK A01 T00441044  RH  053%=      5-min Rain = 0
KCA1 291025Z 29006KT 04/M04 A3022 RMK A01 T00441044  RH  053%=      5-min Rain = 0
KCA1 291026Z 29006KT 04/M04 A3022 RMK A01 T00431044  RH  053%=      5-min Rain = 0
KCA1 291027Z 29006KT 04/M04 A3022 RMK A01 T00431043  RH  053%=      5-min Rain = 0
KCA1 291028Z 29007KT 04/M04 A3022 RMK A01 T00421043  RH  054%=      5-min Rain = 0
KCA1 291029Z 30007KT 04/M04 A3022 RMK A01 T00421043  RH  054%=      5-min Rain = 0
KCA1 291030Z 30007KT 04/M04 A3022 RMK A01 T00421042  RH  054%=      5-min Rain = 0
KCA1 291031Z 30007KT 04/M04 A3022 RMK A01 T00421043  RH  054%=      5-min Rain = 0
KCA1 291032Z 30007KT 04/M04 A3022 RMK A01 T00421042  RH  054%=      5-min Rain = 0
KCA1 291033Z 30007KT 04/M04 A3022 RMK A01 T00421043  RH  054%=      5-min Rain = 0
KCA1 291034Z 30007KT 04/M04 A3022 RMK A01 T00421042  RH  054%=      5-min Rain = 0
KCA1 291035Z 30007KT 04/M04 A3022 RMK A01 T00421042  RH  054%=      5-min Rain = 0
KCA1 291036Z 30007KT 04/M04 A3022 RMK A01 T00421043  RH  054%=      5-min Rain = 0
KCA1 291037Z 30007KT 04/M04 A3022 RMK A01 T00421042  RH  054%=      5-min Rain = 0
KCA1 291038Z 30007KT 04/M04 A3022 RMK A01 T00421042  RH  054%=      5-min Rain = 0
KCA1 291039Z 30007KT 04/M04 A3022 RMK A01 T00411042  RH  054%=      5-min Rain = 0
KCA1 291040Z 30007KT 04/M04 A3022 RMK A01 T00401043  RH  055%=      5-min Rain = 0
KCA1 291041Z 30007KT 04/M04 A3022 RMK A01 T00411043  RH  055%=      5-min Rain = 0
KCA1 291042Z 30006KT 04/M04 A3022 RMK A01 T00421042  RH  054%=      5-min Rain = 0
KCA1 291043Z 30007KT 04/M04 A3022 RMK A01 T00411043  RH  055%=      5-min Rain = 0
KCA1 291044Z 30007KT 04/M04 A3022 RMK A01 T00401043  RH  055%=      5-min Rain = 0
KCA1 291045Z 30006KT 04/M04 A3022 RMK A01 T00401043  RH  055%=      5-min Rain = 0
KCA1 291046Z 30006KT 04/M04 A3022 RMK A01 T00401043  RH  055%=      5-min Rain = 0
KCA1 291047Z 30007KT 04/M04 A3022 RMK A01 T00391042  RH  055%=      5-min Rain = 0
KCA1 291048Z 30007KT 04/M04 A3022 RMK A01 T00391043  RH  055%=      5-min Rain = 0
KCA1 291049Z 30006KT 04/M04 A3022 RMK A01 T00391043  RH  055%=      5-min Rain = 0
KCA1 291050Z 30007KT 04/M04 A3022 RMK A01 T00391043  RH  055%=      5-min Rain = 0
KCA1 291051Z 30007KT 04/M04 A3022 RMK A01 T00391043  RH  055%=      5-min Rain = 0
KCA1 291052Z 30007KT 04/M04 A3022 RMK A01 T00401043  RH  055%=      5-min Rain = 0
KCA1 291053Z 30007KT 04/M04 A3022 RMK A01 T00401043  RH  055%=      5-min Rain = 0
KCA1 291054Z 30007KT 04/M04 A3022 RMK A01 T00401043  RH  055%=      5-min Rain = 0
KCA1 291055Z 30007KT 04/M04 A3022 RMK A01 T00411042  RH  055%=      5-min Rain = 0
KCA1 291056Z 30008KT 04/M04 A3022 RMK A01 T00411042  RH  054%=      5-min Rain = 0
KCA1 291057Z 30007KT 04/M04 A3022 RMK A01 T00421043  RH  054%=      5-min Rain = 0
KCA1 291058Z 29007KT 04/M04 A3022 RMK A01 T00431042  RH  054%=      5-min Rain = 0
KCA1 291059Z 29007KT 04/M04 A3022 RMK A01 T00441042  RH  053%=      5-min Rain = 0
KCA1 291100Z 29007KT 04/M04 A3022 RMK A01 T00441042  RH  053%=      5-min Rain = 0
KCA1 291101Z 29007KT 04/M04 A3022 RMK A01 T00441042  RH  053%=      5-min Rain = 0
KCA1 291102Z 29007KT 04/M04 A3022 RMK A01 T00441043  RH  053%=      5-min Rain = 0
KCA1 291103Z 30007KT 04/M04 A3022 RMK A01 T00431043  RH  054%=      5-min Rain = 0
KCA1 291104Z 30007KT 04/M04 A3022 RMK A01 T00431042  RH  054%=      5-min Rain = 0
KCA1 291105Z 30007KT 04/M04 A3022 RMK A01 T00421042  RH  054%=      5-min Rain = 0
KCA1 291106Z 30007KT 04/M04 A3022 RMK A01 T00421042  RH  054%=      5-min Rain = 0
KCA1 291107Z 30007KT 04/M04 A3022 RMK A01 T00421042  RH  054%=      5-min Rain = 0
KCA1 291108Z 30007KT 04/M04 A3022 RMK A01 T00431042  RH  054%=      5-min Rain = 0
KCA1 291109Z 29007KT 04/M04 A3022 RMK A01 T00431043  RH  054%=      5-min Rain = 0
KCA1 291110Z 29007KT 04/M04 A3022 RMK A01 T00441042  RH  053%=      5-min Rain = 0
KCA1 291111Z 29008KT 05/M04 A3022 RMK A01 T00461042  RH  053%=      5-min Rain = 0
KCA1 291112Z 29007KT 05/M04 A3022 RMK A01 T00471042  RH  052%=      5-min Rain = 0
KCA1 291113Z 29007KT 05/M04 A3022 RMK A01 T00471043  RH  052%=      5-min Rain = 0
KCA1 291114Z 29007KT 05/M04 A3022 RMK A01 T00471042  RH  052%=      5-min Rain = 0
KCA1 291115Z 29007KT 05/M04 A3022 RMK A01 T00471043  RH  052%=      5-min Rain = 0
KCA1 291116Z 29008KT 05/M04 A3022 RMK A01 T00481043  RH  052%=      5-min Rain = 0
KCA1 291117Z 29008KT 05/M04 A3022 RMK A01 T00491042  RH  052%=      5-min Rain = 0
KCA1 291118Z 29008KT 05/M04 A3022 RMK A01 T00501042  RH  051%=      5-min Rain = 0
KCA1 291119Z 29008KT 05/M04 A3022 RMK A01 T00501042  RH  051%=      5-min Rain = 0
KCA1 291120Z 29008KT 05/M04 A3022 RMK A01 T00501043  RH  051%=      5-min Rain = 0
KCA1 291121Z 29008KT 05/M04 A3022 RMK A01 T00501043  RH  051%=      5-min Rain = 0
KCA1 291122Z 29007KT 05/M04 A3022 RMK A01 T00511042  RH  051%=      5-min Rain = 0
KCA1 291123Z 29008KT 05/M04 A3022 RMK A01 T00511043  RH  051%=      5-min Rain = 0
KCA1 291124Z 29007KT 05/M04 A3022 RMK A01 T00511043  RH  051%=      5-min Rain = 0
KCA1 291125Z 29007KT 05/M04 A3022 RMK A01 T00511043  RH  051%=      5-min Rain = 0
KCA1 291126Z 29008KT 05/M04 A3022 RMK A01 T00511043  RH  051%=      5-min Rain = 0
KCA1 291127Z 30007KT 05/M04 A3022 RMK A01 T00511043  RH  051%=      5-min Rain = 0
KCA1 291128Z 30008KT 05/M04 A3022 RMK A01 T00511043  RH  051%=      5-min Rain = 0
KCA1 291129Z 30008KT 05/M04 A3022 RMK A01 T00501043  RH  051%=      5-min Rain = 0
KCA1 291130Z 30008KT 05/M04 A3022 RMK A01 T00501042  RH  051%=      5-min Rain = 0
KCA1 291131Z 30008KT 05/M04 A3022 RMK A01 T00501042  RH  051%=      5-min Rain = 0
KCA1 291132Z 30008KT 05/M04 A3022 RMK A01 T00501042  RH  051%=      5-min Rain = 0
KCA1 291133Z 30009KT 05/M04 A3022 RMK A01 T00501042  RH  051%=      5-min Rain = 0
KCA1 291134Z 30010KT 05/M04 A3022 RMK A01 T00501042  RH  051%=      5-min Rain = 0
KCA1 291135Z 30010KT 05/M04 A3022 RMK A01 T00521042  RH  051%=      5-min Rain = 0
KCA1 291136Z 30009KT 05/M04 A3022 RMK A01 T00531042  RH  050%=      5-min Rain = 0
KCA1 291137Z 30009KT 05/M04 A3022 RMK A01 T00531042  RH  050%=      5-min Rain = 0
KCA1 291138Z 31009KT 05/M04 A3022 RMK A01 T00531042  RH  050%=      5-min Rain = 0
KCA1 291139Z 31008KT 05/M04 A3022 RMK A01 T00531042  RH  051%=      5-min Rain = 0
KCA1 291140Z 31008KT 05/M04 A3022 RMK A01 T00531042  RH  051%=      5-min Rain = 0
KCA1 291141Z 31008KT 05/M04 A3022 RMK A01 T00531042  RH  050%=      5-min Rain = 0
KCA1 291142Z 31008KT 05/M04 A3022 RMK A01 T00531041  RH  051%=      5-min Rain = 0
KCA1 291143Z 31008KT 05/M04 A3022 RMK A01 T00521042  RH  051%=      5-min Rain = 0
KCA1 291144Z 31009KT 05/M04 A3022 RMK A01 T00521042  RH  051%=      5-min Rain = 0
KCA1 291145Z 30009KT 05/M04 A3022 RMK A01 T00521042  RH  051%=      5-min Rain = 0
KCA1 291146Z 30009KT 05/M04 A3022 RMK A01 T00521042  RH  051%=      5-min Rain = 0
KCA1 291147Z 30008KT 05/M04 A3022 RMK A01 T00541041  RH  050%=      5-min Rain = 0
KCA1 291148Z 30009KT 06/M04 A3022 RMK A01 T00551042  RH  050%=      5-min Rain = 0
KCA1 291149Z 30008KT 06/M04 A3022 RMK A01 T00551042  RH  050%=      5-min Rain = 0
KCA1 291150Z 30009KT 06/M04 A3022 RMK A01 T00551042  RH  050%=      5-min Rain = 0
KCA1 291151Z 30008KT 06/M04 A3022 RMK A01 T00551042  RH  050%=      5-min Rain = 0
KCA1 291152Z 31008KT 05/M04 A3022 RMK A01 T00541042  RH  050%=      5-min Rain = 0
KCA1 291153Z 30008KT 05/M04 A3022 RMK A01 T00531042  RH  050%=      5-min Rain = 0
KCA1 291154Z 30008KT 05/M04 A3022 RMK A01 T00531042  RH  050%=      5-min Rain = 0
KCA1 291155Z 30008KT 05/M04 A3022 RMK A01 T00521042  RH  051%=      5-min Rain = 0
KCA1 291156Z 30008KT 05/M04 A3022 RMK A01 T00521042  RH  051%=      5-min Rain = 0
KCA1 291157Z 30008KT 05/M04 A3022 RMK A01 T00511042  RH  051%=      5-min Rain = 0
KCA1 291158Z 30009KT 05/M04 A3022 RMK A01 T00501042  RH  051%=      5-min Rain = 0
KCA1 291159Z 30008KT 05/M04 A3022 RMK A01 T00501042  RH  052%=      5-min Rain = 0
KCA1 291200Z 30008KT 05/M04 A3022 RMK A01 T00491041  RH  052%=      5-min Rain = 0
KCA1 291201Z 31008KT 05/M04 A3022 RMK A01 T00481041  RH  052%=      5-min Rain = 0
KCA1 291202Z 30008KT 05/M04 A3022 RMK A01 T00481041  RH  052%=      5-min Rain = 0
KCA1 291203Z 31007KT 05/M04 A3022 RMK A01 T00481041  RH  053%=      5-min Rain = 0
KCA1 291204Z 31008KT 05/M04 A3022 RMK A01 T00471041  RH  053%=      5-min Rain = 0
KCA1 291205Z 31008KT 05/M04 A3022 RMK A01 T00471041  RH  053%=      5-min Rain = 0
KCA1 291206Z 31008KT 05/M04 A3022 RMK A01 T00471041  RH  053%=      5-min Rain = 0
KCA1 291207Z 30009KT 05/M04 A3022 RMK A01 T00471041  RH  053%=      5-min Rain = 0
KCA1 291208Z 30008KT 05/M04 A3022 RMK A01 T00471041  RH  053%=      5-min Rain = 0
KCA1 291209Z 31008KT 05/M04 A3022 RMK A01 T00471041  RH  053%=      5-min Rain = 0
KCA1 291210Z 31008KT 05/M04 A3022 RMK A01 T00471041  RH  053%=      5-min Rain = 0
KCA1 291211Z 30008KT 05/M04 A3022 RMK A01 T00471040  RH  053%=      5-min Rain = 0
KCA1 291212Z 31008KT 05/M04 A3022 RMK A01 T00471040  RH  053%=      5-min Rain = 0
KCA1 291213Z 31008KT 05/M04 A3022 RMK A01 T00461041  RH  053%=      5-min Rain = 0
KCA1 291214Z 31008KT 05/M04 A3022 RMK A01 T00461040  RH  054%=      5-min Rain = 0
KCA1 291215Z 31007KT 05/M04 A3022 RMK A01 T00451041  RH  054%=      5-min Rain = 0
KCA1 291216Z 31007KT 05/M04 A3022 RMK A01 T00451040  RH  054%=      5-min Rain = 0
KCA1 291217Z 31007KT 04/M04 A3022 RMK A01 T00441041  RH  054%=      5-min Rain = 0
KCA1 291218Z 31006KT 04/M04 A3022 RMK A01 T00441041  RH  054%=      5-min Rain = 0
KCA1 291219Z 31007KT 04/M04 A3022 RMK A01 T00431041  RH  054%=      5-min Rain = 0
KCA1 291220Z 32007KT 04/M04 A3022 RMK A01 T00421041  RH  055%=      5-min Rain = 0
KCA1 291221Z 31007KT 04/M04 A3022 RMK A01 T00411041  RH  055%=      5-min Rain = 0
KCA1 291222Z 31007KT 04/M04 A3022 RMK A01 T00411041  RH  055%=      5-min Rain = 0
KCA1 291223Z 31008KT 04/M04 A3022 RMK A01 T00411041  RH  055%=      5-min Rain = 0
KCA1 291224Z 31008KT 04/M04 A3022 RMK A01 T00411041  RH  055%=      5-min Rain = 0
KCA1 291225Z 31008KT 04/M04 A3022 RMK A01 T00411041  RH  055%=      5-min Rain = 0
KCA1 291226Z 31007KT 04/M04 A3022 RMK A01 T00411041  RH  055%=      5-min Rain = 0
KCA1 291227Z 31007KT 04/M04 A3022 RMK A01 T00421041  RH  055%=      5-min Rain = 0
KCA1 291228Z 31007KT 04/M04 A3022 RMK A01 T00421041  RH  055%=      5-min Rain = 0
KCA1 291229Z 31007KT 04/M04 A3022 RMK A01 T00411041  RH  055%=      5-min Rain = 0
KCA1 291230Z 31007KT 04/M04 A3022 RMK A01 T00411041  RH  055%=      5-min Rain = 0
KCA1 291231Z 31007KT 04/M04 A3022 RMK A01 T00411042  RH  055%=      5-min Rain = 0
KCA1 291232Z 31007KT 04/M04 A3022 RMK A01 T00421042  RH  054%=      5-min Rain = 0
KCA1 291233Z 31007KT 04/M04 A3022 RMK A01 T00431042  RH  054%=      5-min Rain = 0
KCA1 291234Z 31008KT 04/M04 A3022 RMK A01 T00441042  RH  054%=      5-min Rain = 0
KCA1 291235Z 31008KT 05/M04 A3022 RMK A01 T00451042  RH  053%=      5-min Rain = 0
KCA1 291236Z 31008KT 05/M04 A3022 RMK A01 T00471042  RH  052%=      5-min Rain = 0
KCA1 291237Z 31008KT 05/M04 A3022 RMK A01 T00491042  RH  052%=      5-min Rain = 0
KCA1 291238Z 31007KT 05/M04 A3022 RMK A01 T00491042  RH  052%=      5-min Rain = 0
KCA1 291239Z 31007KT 05/M04 A3022 RMK A01 T00491043  RH  051%=      5-min Rain = 0
KCA1 291240Z 31007KT 05/M04 A3022 RMK A01 T00491043  RH  051%=      5-min Rain = 0
KCA1 291241Z 31007KT 05/M04 A3022 RMK A01 T00491043  RH  051%=      5-min Rain = 0
KCA1 291242Z 31007KT 05/M04 A3022 RMK A01 T00491043  RH  052%=      5-min Rain = 0
KCA1 291243Z 31007KT 05/M04 A3022 RMK A01 T00481043  RH  052%=      5-min Rain = 0
KCA1 291244Z 31008KT 05/M04 A3022 RMK A01 T00481043  RH  052%=      5-min Rain = 0
KCA1 291245Z 31007KT 05/M04 A3022 RMK A01 T00481043  RH  052%=      5-min Rain = 0
KCA1 291246Z 31007KT 05/M04 A3022 RMK A01 T00481043  RH  052%=      5-min Rain = 0
KCA1 291247Z 31007KT 05/M04 A3022 RMK A01 T00481043  RH  052%=      5-min Rain = 0
KCA1 291248Z 31007KT 05/M04 A3022 RMK A01 T00481043  RH  052%=      5-min Rain = 0
KCA1 291249Z 31007KT 05/M04 A3022 RMK A01 T00491043  RH  052%=      5-min Rain = 0
KCA1 291250Z 31007KT 05/M04 A3022 RMK A01 T00491043  RH  051%=      5-min Rain = 0
KCA1 291251Z 31007KT 05/M04 A3022 RMK A01 T00501043  RH  051%=      5-min Rain = 0
KCA1 291252Z 31007KT 05/M04 A3022 RMK A01 T00501043  RH  051%=      5-min Rain = 0
KCA1 291253Z 31007KT 05/M04 A3022 RMK A01 T00511043  RH  051%=      5-min Rain = 0
KCA1 291254Z 31007KT 05/M04 A3022 RMK A01 T00511043  RH  051%=      5-min Rain = 0
KCA1 291255Z 31007KT 05/M04 A3022 RMK A01 T00521043  RH  050%=      5-min Rain = 0
KCA1 291256Z 31007KT 05/M04 A3022 RMK A01 T00531042  RH  050%=      5-min Rain = 0
KCA1 291257Z 31007KT 05/M04 A3022 RMK A01 T00541042  RH  050%=      5-min Rain = 0
KCA1 291258Z 31007KT 05/M04 A3022 RMK A01 T00541042  RH  050%=      5-min Rain = 0
KCA1 291259Z 31007KT 06/M04 A3022 RMK A01 T00551042  RH  049%=      5-min Rain = 0
KCA1 291300Z 31007KT 06/M04 A3022 RMK A01 T00561043  RH  049%=      5-min Rain = 0
KCA1 291301Z 31008KT 06/M04 A3022 RMK A01 T00571042  RH  049%=      5-min Rain = 0
KCA1 291302Z 31007KT 06/M04 A3022 RMK A01 T00581042  RH  049%=      5-min Rain = 0
KCA1 291303Z 31008KT 06/M04 A3022 RMK A01 T00591042  RH  048%=      5-min Rain = 0
KCA1 291304Z 31008KT 06/M04 A3022 RMK A01 T00601042  RH  048%=      5-min Rain = 0
KCA1 291305Z 30007KT 06/M04 A3022 RMK A01 T00611042  RH  047%=      5-min Rain = 0
KCA1 291306Z 31007KT 06/M04 A3022 RMK A01 T00621042  RH  047%=      5-min Rain = 0
KCA1 291307Z 31007KT 06/M04 A3022 RMK A01 T00631043  RH  047%=      5-min Rain = 0
KCA1 291308Z 31007KT 06/M04 A3022 RMK A01 T00631043  RH  047%=      5-min Rain = 0
KCA1 291309Z 31007KT 06/M04 A3022 RMK A01 T00631043  RH  047%=      5-min Rain = 0
KCA1 291310Z 31006KT 06/M04 A3022 RMK A01 T00631043  RH  047%=      5-min Rain = 0
KCA1 291311Z 31006KT 06/M04 A3023 RMK A01 T00641043  RH  047%=      5-min Rain = 0
KCA1 291312Z 30006KT 06/M04 A3023 RMK A01 T00641043  RH  047%=      5-min Rain = 0
KCA1 291313Z 30006KT 06/M04 A3023 RMK A01 T00641042  RH  046%=      5-min Rain = 0
KCA1 291314Z 30007KT 07/M04 A3023 RMK A01 T00651042  RH  046%=      5-min Rain = 0
KCA1 291315Z 30007KT 07/M04 A3023 RMK A01 T00651042  RH  046%=      5-min Rain = 0
KCA1 291316Z 30006KT 07/M04 A3023 RMK A01 T00651043  RH  046%=      5-min Rain = 0
KCA1 291317Z 30006KT 07/M04 A3023 RMK A01 T00661043  RH  046%=      5-min Rain = 0
KCA1 291318Z 30006KT 07/M04 A3023 RMK A01 T00661042  RH  046%=      5-min Rain = 0
KCA1 291319Z 30006KT 07/M04 A3023 RMK A01 T00661042  RH  046%=      5-min Rain = 0
KCA1 291320Z 30007KT 07/M04 A3023 RMK A01 T00661042  RH  046%=      5-min Rain = 0
KCA1 291321Z 30006KT 07/M04 A3023 RMK A01 T00661042  RH  046%=      5-min Rain = 0
KCA1 291322Z 29005KT 07/M04 A3023 RMK A01 T00661042  RH  046%=      5-min Rain = 0
KCA1 291323Z 29006KT 07/M04 A3023 RMK A01 T00661041  RH  046%=      5-min Rain = 0
KCA1 291324Z 30006KT 07/M04 A3023 RMK A01 T00661040  RH  047%=      5-min Rain = 0
KCA1 291325Z 30006KT 07/M04 A3023 RMK A01 T00661040  RH  047%=      5-min Rain = 0
KCA1 291326Z 30006KT 07/M04 A3023 RMK A01 T00661041  RH  046%=      5-min Rain = 0
KCA1 291327Z 30005KT 07/M04 A3023 RMK A01 T00671040  RH  046%=      5-min Rain = 0
KCA1 291328Z 30005KT 07/M04 A3023 RMK A01 T00681040  RH  046%=      5-min Rain = 0
KCA1 291329Z 30005KT 07/M04 A3022 RMK A01 T00681039  RH  046%=      5-min Rain = 0
KCA1 291330Z 30006KT 07/M04 A3022 RMK A01 T00691039  RH  046%=      5-min Rain = 0
KCA1 291331Z 31006KT 07/M04 A3022 RMK A01 T00701039  RH  046%=      5-min Rain = 0
KCA1 291332Z 31006KT 07/M04 A3022 RMK A01 T00711039  RH  045%=      5-min Rain = 0
KCA1 291333Z 31006KT 07/M04 A3022 RMK A01 T00711040  RH  045%=      5-min Rain = 0
KCA1 291334Z 31007KT 07/M04 A3022 RMK A01 T00721039  RH  045%=      5-min Rain = 0
KCA1 291335Z 30007KT 07/M04 A3022 RMK A01 T00721040  RH  045%=      5-min Rain = 0
KCA1 291336Z 30006KT 07/M04 A3022 RMK A01 T00731040  RH  044%=      5-min Rain = 0
KCA1 291337Z 30007KT 07/M04 A3022 RMK A01 T00741039  RH  044%=      5-min Rain = 0
KCA1 291338Z 31006KT 08/M04 A3022 RMK A01 T00761040  RH  044%=      5-min Rain = 0
KCA1 291339Z 31006KT 08/M04 A3022 RMK A01 T00761039  RH  044%=      5-min Rain = 0
KCA1 291340Z 31007KT 08/M04 A3022 RMK A01 T00771039  RH  044%=      5-min Rain = 0
KCA1 291341Z 31006KT 08/M04 A3022 RMK A01 T00771039  RH  043%=      5-min Rain = 0
KCA1 291342Z 30006KT 08/M04 A3022 RMK A01 T00771039  RH  043%=      5-min Rain = 0
KCA1 291343Z 30006KT 08/M04 A3022 RMK A01 T00781039  RH  043%=      5-min Rain = 0
KCA1 291344Z 30006KT 08/M04 A3022 RMK A01 T00791038  RH  043%=      5-min Rain = 0
KCA1 291345Z 30005KT 08/M04 A3022 RMK A01 T00801038  RH  043%=      5-min Rain = 0
KCA1 291346Z 30005KT 08/M04 A3022 RMK A01 T00811037  RH  043%=      5-min Rain = 0
KCA1 291347Z 30006KT 08/M04 A3022 RMK A01 T00811037  RH  043%=      5-min Rain = 0
KCA1 291348Z 30005KT 08/M04 A3022 RMK A01 T00821036  RH  043%=      5-min Rain = 0
KCA1 291349Z 30007KT 08/M04 A3022 RMK A01 T00831037  RH  042%=      5-min Rain = 0
KCA1 291350Z 30006KT 08/M04 A3022 RMK A01 T00831040  RH  042%=      5-min Rain = 0
KCA1 291351Z 30008KT 08/M04 A3022 RMK A01 T00841039  RH  042%=      5-min Rain = 0
KCA1 291352Z 30005KT 09/M04 A3022 RMK A01 T00851039  RH  041%=      5-min Rain = 0
KCA1 291353Z 30006KT 09/M04 A3022 RMK A01 T00861037  RH  042%=      5-min Rain = 0
KCA1 291354Z 29006KT 09/M04 A3022 RMK A01 T00871037  RH  041%=      5-min Rain = 0
KCA1 291355Z 29007KT 09/M04 A3022 RMK A01 T00891037  RH  041%=      5-min Rain = 0
KCA1 291356Z 30007KT 09/M04 A3022 RMK A01 T00891038  RH  040%=      5-min Rain = 0
KCA1 291357Z 29006KT 09/M04 A3022 RMK A01 T00901037  RH  040%=      5-min Rain = 0
KCA1 291358Z 28005KT 09/M04 A3022 RMK A01 T00911036  RH  041%=      5-min Rain = 0
KCA1 291359Z 27005KT 09/M04 A3022 RMK A01 T00921035  RH  040%=      5-min Rain = 0
KCA1 291400Z 28006KT 09/M03 A3022 RMK A01 T00931034  RH  041%=      5-min Rain = 0
KCA1 291401Z 28005KT 09/M03 A3022 RMK A01 T00941034  RH  040%=      5-min Rain = 0
KCA1 291402Z 29006KT 09/M03 A3022 RMK A01 T00941034  RH  041%=      5-min Rain = 0
KCA1 291403Z 28007KT 09/M04 A3022 RMK A01 T00941035  RH  040%=      5-min Rain = 0
KCA1 291404Z 28007KT 09/M04 A3022 RMK A01 T00941036  RH  040%=      5-min Rain = 0
KCA1 291405Z 29007KT 09/M04 A3022 RMK A01 T00941035  RH  040%=      5-min Rain = 0
KCA1 291406Z 28006KT 10/M04 A3022 RMK A01 T00951035  RH  040%=      5-min Rain = 0
KCA1 291407Z 28007KT 10/M03 A3022 RMK A01 T00961034  RH  040%=      5-min Rain = 0
KCA1 291408Z 29008KT 10/M03 A3022 RMK A01 T00971034  RH  040%=      5-min Rain = 0
KCA1 291409Z 28007KT 10/M04 A3022 RMK A01 T00981035  RH  039%=      5-min Rain = 0
KCA1 291410Z 28008KT 10/M04 A3022 RMK A01 T00991035  RH  039%=      5-min Rain = 0
KCA1 291411Z 28009KT 10/M04 A3022 RMK A01 T00991037  RH  038%=      5-min Rain = 0
KCA1 291412Z 28009KT 10/M04 A3022 RMK A01 T01001038  RH  038%=      5-min Rain = 0
KCA1 291413Z 27008KT 10/M04 A3022 RMK A01 T01001036  RH  038%=      5-min Rain = 0
KCA1 291414Z 28007KT 10/M03 A3022 RMK A01 T01011034  RH  038%=      5-min Rain = 0
KCA1 291415Z 28007KT 10/M03 A3022 RMK A01 T01021032  RH  039%=      5-min Rain = 0
KCA1 291416Z 27008KT 10/M03 A3022 RMK A01 T01031032  RH  039%=      5-min Rain = 0
KCA1 291417Z 28009KT 11/M03 A3022 RMK A01 T01051033  RH  038%=      5-min Rain = 0
KCA1 291418Z 28009KT 11/M03 A3022 RMK A01 T01051034  RH  038%=      5-min Rain = 0
KCA1 291419Z 28009KT 11/M03 A3022 RMK A01 T01061034  RH  037%=      5-min Rain = 0
KCA1 291420Z 28009KT 10/M03 A3022 RMK A01 T01041034  RH  038%=      5-min Rain = 0
KCA1 291421Z 28009KT 11/M04 A3022 RMK A01 T01051035  RH  037%=      5-min Rain = 0
KCA1 291422Z 28009KT 11/M04 A3022 RMK A01 T01051036  RH  037%=      5-min Rain = 0
KCA1 291423Z 28009KT 11/M04 A3022 RMK A01 T01061036  RH  037%=      5-min Rain = 0
KCA1 291424Z 28010KT 11/M04 A3022 RMK A01 T01071035  RH  037%=      5-min Rain = 0
KCA1 291425Z 29010KT 11/M04 A3022 RMK A01 T01071037  RH  036%=      5-min Rain = 0
KCA1 291426Z 29011KT 11/M04 A3022 RMK A01 T01071037  RH  036%=      5-min Rain = 0
KCA1 291427Z 29011KT 11/M04 A3022 RMK A01 T01081038  RH  036%=      5-min Rain = 0
KCA1 291428Z 29011KT 11/M04 A3022 RMK A01 T01081038  RH  036%=      5-min Rain = 0
KCA1 291429Z 29008KT 11/M04 A3022 RMK A01 T01081038  RH  036%=      5-min Rain = 0
KCA1 291430Z 29009KT 11/M04 A3022 RMK A01 T01091036  RH  036%=      5-min Rain = 0
KCA1 291431Z 28011KT 11/M04 A3022 RMK A01 T01111035  RH  036%=      5-min Rain = 0
KCA1 291432Z 29010KT 11/M04 A3022 RMK A01 T01121037  RH  035%=      5-min Rain = 0
KCA1 291433Z 29009KT 11/M04 A3022 RMK A01 T01131036  RH  035%=      5-min Rain = 0
KCA1 291434Z 29009KT 11/M03 A3022 RMK A01 T01131033  RH  036%=      5-min Rain = 0
KCA1 291435Z 29010KT 11/M03 A3022 RMK A01 T01141033  RH  035%=      5-min Rain = 0
KCA1 291436Z 28009KT 12/M04 A3022 RMK A01 T01151035  RH  035%=      5-min Rain = 0
KCA1 291437Z 29006KT 12/M03 A3022 RMK A01 T01171032  RH  035%=      5-min Rain = 0
KCA1 291438Z 28010KT 12/M03 A3022 RMK A01 T01191033  RH  035%=      5-min Rain = 0
KCA1 291439Z 28009KT 12/M03 A3022 RMK A01 T01191034  RH  034%=      5-min Rain = 0
KCA1 291440Z 29009KT 12/M04 A3022 RMK A01 T01181036  RH  034%=      5-min Rain = 0
KCA1 291441Z 29007KT 12/M04 A3022 RMK A01 T01181035  RH  034%=      5-min Rain = 0
KCA1 291442Z 30010KT 12/M04 A3022 RMK A01 T01191035  RH  034%=      5-min Rain = 0
KCA1 291443Z 28008KT 12/M04 A3022 RMK A01 T01201036  RH  033%=      5-min Rain = 0
KCA1 291444Z 29006KT 12/M03 A3022 RMK A01 T01221034  RH  034%=      5-min Rain = 0
KCA1 291445Z 29008KT 13/M03 A3022 RMK A01 T01251033  RH  033%=      5-min Rain = 0
KCA1 291446Z 28010KT 13/M04 A3022 RMK A01 T01261035  RH  032%=      5-min Rain = 0
KCA1 291447Z 28008KT 13/M04 A3022 RMK A01 T01251037  RH  032%=      5-min Rain = 0
KCA1 291448Z 28008KT 13/M04 A3022 RMK A01 T01261035  RH  032%=      5-min Rain = 0
KCA1 291449Z 28007KT 13/M04 A3022 RMK A01 T01281036  RH  032%=      5-min Rain = 0
KCA1 291450Z 29009KT 13/M04 A3022 RMK A01 T01291035  RH  032%=      5-min Rain = 0
KCA1 291451Z 28008KT 13/M04 A3022 RMK A01 T01301035  RH  031%=      5-min Rain = 0
KCA1 291452Z 28008G13KT 13/M04 A3022 RMK A01 T01321035  RH  031%=      5-min Rain = 0
KCA1 291453Z 28012KT 13/M04 A3022 RMK A01 T01321038  RH  030%=      5-min Rain = 0
KCA1 291454Z 28013KT 13/M04 A3022 RMK A01 T01311039  RH  030%=      5-min Rain = 0
KCA1 291455Z 29012KT 13/M04 A3022 RMK A01 T01301039  RH  031%=      5-min Rain = 0
KCA1 291456Z 29012KT 13/M04 A3022 RMK A01 T01301039  RH  031%=      5-min Rain = 0
KCA1 291457Z 28010KT 13/M04 A3022 RMK A01 T01321039  RH  030%=      5-min Rain = 0
KCA1 291458Z 28010KT 13/M04 A3022 RMK A01 T01331038  RH  030%=      5-min Rain = 0
KCA1 291459Z 28010KT 13/M04 A3022 RMK A01 T01341037  RH  030%=      5-min Rain = 0
KCA1 291500Z 28012KT 14/M04 A3022 RMK A01 T01351039  RH  030%=      5-min Rain = 0
KCA1 291501Z 28014KT 14/M04 A3022 RMK A01 T01351041  RH  029%=      5-min Rain = 0
KCA1 291502Z 28011KT 13/M04 A3022 RMK A01 T01331043  RH  029%=      5-min Rain = 0
KCA1 291503Z 28011KT 13/M04 A3022 RMK A01 T01341039  RH  030%=      5-min Rain = 0
KCA1 291504Z 28011KT 14/M04 A3022 RMK A01 T01361038  RH  030%=      5-min Rain = 0
KCA1 291505Z 29010KT 14/M04 A3022 RMK A01 T01381038  RH  029%=      5-min Rain = 0
KCA1 291506Z 29012KT 14/M04 A3022 RMK A01 T01391038  RH  029%=      5-min Rain = 0
KCA1 291507Z 30012KT 14/M04 A3022 RMK A01 T01401039  RH  029%=      5-min Rain = 0
KCA1 291508Z 29010KT 14/M04 A3022 RMK A01 T01401039  RH  029%=      5-min Rain = 0
KCA1 291509Z 29011KT 14/M04 A3022 RMK A01 T01411036  RH  029%=      5-min Rain = 0
KCA1 291510Z 29012KT 14/M04 A3022 RMK A01 T01431038  RH  028%=      5-min Rain = 0
KCA1 291511Z 29008KT 14/M04 A3022 RMK A01 T01431038  RH  028%=      5-min Rain = 0
KCA1 291512Z 28009KT 15/M04 A3022 RMK A01 T01461036  RH  028%=      5-min Rain = 0
KCA1 291513Z 28010KT 15/M04 A3022 RMK A01 T01471035  RH  028%=      5-min Rain = 0
KCA1 291514Z 28008KT 15/M04 A3022 RMK A01 T01471037  RH  028%=      5-min Rain = 0
KCA1 291515Z 27011KT 15/M04 A3022 RMK A01 T01491035  RH  028%=      5-min Rain = 0
KCA1 291516Z 28011KT 15/M04 A3022 RMK A01 T01491039  RH  027%=      5-min Rain = 0
KCA1 291517Z 28007KT 15/M04 A3022 RMK A01 T01471038  RH  027%=      5-min Rain = 0
KCA1 291518Z 28009KT 15/M03 A3022 RMK A01 T01501032  RH  028%=      5-min Rain = 0
KCA1 291519Z 28007KT 15/M03 A3022 RMK A01 T01531033  RH  028%=      5-min Rain = 0
KCA1 291520Z 28010KT 16/M03 A3022 RMK A01 T01551032  RH  027%=      5-min Rain = 0
KCA1 291521Z 29010KT 16/M03 A3022 RMK A01 T01561034  RH  027%=      5-min Rain = 0
KCA1 291522Z 29010KT 15/M04 A3022 RMK A01 T01541038  RH  026%=      5-min Rain = 0
KCA1 291523Z 29009KT 15/M04 A3022 RMK A01 T01531036  RH  027%=      5-min Rain = 0
KCA1 291524Z 29009KT 15/M04 A3022 RMK A01 T01541035  RH  027%=      5-min Rain = 0
KCA1 291525Z 29012KT 16/M04 A3022 RMK A01 T01561035  RH  027%=      5-min Rain = 0
KCA1 291526Z 28011KT 16/M04 A3022 RMK A01 T01561036  RH  026%=      5-min Rain = 0
KCA1 291527Z 29013G18KT 16/M04 A3022 RMK A01 T01561036  RH  027%=      5-min Rain = 0
KCA1 291528Z 29011KT 16/M04 A3022 RMK A01 T01561038  RH  026%=      5-min Rain = 0
KCA1 291529Z 29013KT 16/M04 A3022 RMK A01 T01561038  RH  026%=      5-min Rain = 0
KCA1 291530Z 28012KT 16/M04 A3022 RMK A01 T01561039  RH  026%=      5-min Rain = 0
KCA1 291531Z 28012KT 16/M04 A3022 RMK A01 T01551039  RH  026%=      5-min Rain = 0
KCA1 291532Z 28010KT 16/M04 A3022 RMK A01 T01551038  RH  026%=      5-min Rain = 0
KCA1 291533Z 29011KT 16/M04 A3022 RMK A01 T01581036  RH  026%=      5-min Rain = 0
KCA1 291534Z 29010KT 16/M04 A3022 RMK A01 T01601036  RH  026%=      5-min Rain = 0
KCA1 291535Z 27007KT 16/M03 A3022 RMK A01 T01621034  RH  026%=      5-min Rain = 0
KCA1 291536Z 27010KT 16/M03 A3022 RMK A01 T01641033  RH  026%=      5-min Rain = 0
KCA1 291537Z 26010KT 17/M03 A3022 RMK A01 T01661034  RH  025%=      5-min Rain = 0
KCA1 291538Z 26012KT 17/M04 A3022 RMK A01 T01661036  RH  025%=      5-min Rain = 0
KCA1 291539Z 27010KT 17/M04 A3022 RMK A01 T01661036  RH  025%=      5-min Rain = 0
KCA1 291540Z 27012KT 17/M04 A3022 RMK A01 T01651036  RH  025%=      5-min Rain = 0
KCA1 291541Z 28012KT 16/M04 A3022 RMK A01 T01641036  RH  025%=      5-min Rain = 0
KCA1 291542Z 28010KT 16/M04 A3022 RMK A01 T01641035  RH  025%=      5-min Rain = 0
KCA1 291543Z 28010KT 17/M03 A3022 RMK A01 T01651033  RH  026%=      5-min Rain = 0
KCA1 291544Z 28009KT 17/M03 A3022 RMK A01 T01671032  RH  025%=      5-min Rain = 0
KCA1 291545Z 28010KT 17/M03 A3022 RMK A01 T01691030  RH  026%=      5-min Rain = 0
KCA1 291546Z 28009KT 17/M03 A3021 RMK A01 T01711032  RH  025%=      5-min Rain = 0
KCA1 291547Z 26009KT 17/M03 A3021 RMK A01 T01711031  RH  025%=      5-min Rain = 0
KCA1 291548Z 27008KT 17/M03 A3021 RMK A01 T01721030  RH  025%=      5-min Rain = 0
KCA1 291549Z 27009KT 17/M03 A3021 RMK A01 T01731029  RH  025%=      5-min Rain = 0
KCA1 291550Z 26010KT 17/M03 A3021 RMK A01 T01731031  RH  025%=      5-min Rain = 0
KCA1 291551Z 27008KT 17/M03 A3021 RMK A01 T01741030  RH  025%=      5-min Rain = 0
KCA1 291552Z 27009KT 18/M03 A3021 RMK A01 T01761028  RH  025%=      5-min Rain = 0
KCA1 291553Z 26009KT 18/M03 A3021 RMK A01 T01771029  RH  024%=      5-min Rain = 0
KCA1 291554Z 27010KT 18/M03 A3021 RMK A01 T01771030  RH  024%=      5-min Rain = 0
KCA1 291555Z 29009KT 18/M03 A3021 RMK A01 T01771030  RH  024%=      5-min Rain = 0
KCA1 291556Z 28008KT 18/M03 A3021 RMK A01 T01791029  RH  024%=      5-min Rain = 0
KCA1 291557Z 28012KT 18/M03 A3021 RMK A01 T01801032  RH  023%=      5-min Rain = 0
KCA1 291558Z 28009KT 18/M03 A3021 RMK A01 T01791033  RH  023%=      5-min Rain = 0
KCA1 291559Z 29012KT 18/M03 A3021 RMK A01 T01801031  RH  024%=      5-min Rain = 0
KCA1 291600Z 30013KT 18/M03 A3021 RMK A01 T01801033  RH  023%=      5-min Rain = 0
KCA1 291601Z 30009KT 18/M03 A3021 RMK A01 T01781034  RH  023%=      5-min Rain = 0
KCA1 291602Z 29011KT 18/M03 A3021 RMK A01 T01791030  RH  024%=      5-min Rain = 0
KCA1 291603Z 29010KT 18/M03 A3021 RMK A01 T01801031  RH  024%=      5-min Rain = 0
KCA1 291604Z 28010KT 18/M03 A3021 RMK A01 T01801030  RH  024%=      5-min Rain = 0
KCA1 291605Z 28010KT 18/M03 A3021 RMK A01 T01811029  RH  024%=      5-min Rain = 0
KCA1 291606Z 26007KT 18/M03 A3021 RMK A01 T01831027  RH  024%=      5-min Rain = 0
KCA1 291607Z 27008KT 19/M03 A3021 RMK A01 T01851026  RH  024%=      5-min Rain = 0
KCA1 291608Z 28011KT 19/M03 A3021 RMK A01 T01871025  RH  024%=      5-min Rain = 0
KCA1 291609Z 29010KT 19/M03 A3021 RMK A01 T01891027  RH  023%=      5-min Rain = 0
KCA1 291610Z 27009KT 19/M03 A3021 RMK A01 T01891027  RH  023%=      5-min Rain = 0
KCA1 291611Z 27010KT 19/M03 A3021 RMK A01 T01881027  RH  023%=      5-min Rain = 0
KCA1 291612Z 27010KT 19/M03 A3021 RMK A01 T01891026  RH  023%=      5-min Rain = 0
KCA1 291613Z 27009KT 19/M03 A3021 RMK A01 T01901027  RH  023%=      5-min Rain = 0
KCA1 291614Z 28010KT 19/M03 A3021 RMK A01 T01881029  RH  023%=      5-min Rain = 0
KCA1 291615Z 28011KT 19/M03 A302 RMK A01 T01881027  RH  023%=      5-min Rain = 0
KCA1 291616Z 29010KT 19/M03 A302 RMK A01 T01911027  RH  023%=      5-min Rain = 0
KCA1 291617Z 27010KT 19/M03 A302 RMK A01 T01931027  RH  022%=      5-min Rain = 0
KCA1 291618Z 28012KT 19/M03 A302 RMK A01 T01931029  RH  022%=      5-min Rain = 0
KCA1 291619Z 28010KT 19/M03 A302 RMK A01 T01931029  RH  022%=      5-min Rain = 0
KCA1 291620Z 27010KT 19/M03 A302 RMK A01 T01911028  RH  023%=      5-min Rain = 0
KCA1 291621Z 26008KT 19/M02 A302 RMK A01 T01911024  RH  023%=      5-min Rain = 0
KCA1 291622Z 26009KT 19/M02 A302 RMK A01 T01931021  RH  023%=      5-min Rain = 0
KCA1 291623Z 27012KT 20/M02 A302 RMK A01 T01951022  RH  023%=      5-min Rain = 0
KCA1 291624Z 27008KT 20/M02 A302 RMK A01 T01961023  RH  023%=      5-min Rain = 0
KCA1 291625Z 29007KT 20/M02 A302 RMK A01 T01971021  RH  023%=      5-min Rain = 0
KCA1 291626Z 27009KT 20/M02 A302 RMK A01 T01981021  RH  023%=      5-min Rain = 0
KCA1 291627Z 26010KT 20/M02 A302 RMK A01 T02001019  RH  023%=      5-min Rain = 0
KCA1 291628Z 26010KT 20/M02 A302 RMK A01 T02021020  RH  022%=      5-min Rain = 0
KCA1 291629Z 27010KT 20/M02 A302 RMK A01 T02031020  RH  022%=      5-min Rain = 0
KCA1 291630Z 26010KT 20/M02 A302 RMK A01 T02031021  RH  022%=      5-min Rain = 0
KCA1 291631Z 27010KT 20/M02 A302 RMK A01 T02031021  RH  022%=      5-min Rain = 0
KCA1 291632Z 26011KT 20/M02 A302 RMK A01 T02031022  RH  022%=      5-min Rain = 0
KCA1 291633Z 27011KT 20/M02 A302 RMK A01 T02031020  RH  022%=      5-min Rain = 0
KCA1 291634Z 27008KT 20/M02 A302 RMK A01 T02031021  RH  022%=      5-min Rain = 0
KCA1 291635Z 27008KT 21/M02 A302 RMK A01 T02051019  RH  022%=      5-min Rain = 0
KCA1 291636Z 28008KT 21/M02 A302 RMK A01 T02071018  RH  022%=      5-min Rain = 0
KCA1 291637Z 27009KT 21/M02 A302 RMK A01 T02061022  RH  021%=      5-min Rain = 0
KCA1 291638Z 26011KT 21/M02 A302 RMK A01 T02051021  RH  022%=      5-min Rain = 0
KCA1 291639Z 25009KT 21/M02 A302 RMK A01 T02061019  RH  022%=      5-min Rain = 0
KCA1 291640Z 26010KT 21/M02 A302 RMK A01 T02071018  RH  022%=      5-min Rain = 0
KCA1 291641Z 27009KT 21/M02 A302 RMK A01 T02091015  RH  022%=      5-min Rain = 0
KCA1 291642Z 27010KT 21/M02 A302 RMK A01 T02111018  RH  021%=      5-min Rain = 0
KCA1 291643Z 27010KT 21/M02 A302 RMK A01 T02101019  RH  021%=      5-min Rain = 0
KCA1 291644Z 26009KT 21/M02 A302 RMK A01 T02101019  RH  021%=      5-min Rain = 0
KCA1 291645Z 26007KT 21/M02 A302 RMK A01 T02101017  RH  022%=      5-min Rain = 0
KCA1 291646Z 28010KT 21/M02 A302 RMK A01 T02121016  RH  022%=      5-min Rain = 0
KCA1 291647Z 30010KT 21/M02 A302 RMK A01 T02131020  RH  021%=      5-min Rain = 0
KCA1 291648Z 28010KT 22/M02 A302 RMK A01 T02151017  RH  021%=      5-min Rain = 0
KCA1 291649Z 29008KT 22/M02 A3019 RMK A01 T02161018  RH  021%=      5-min Rain = 0
KCA1 291650Z 29009KT 22/M02 A3019 RMK A01 T02161017  RH  021%=      5-min Rain = 0
KCA1 291651Z 26010KT 22/M02 A3019 RMK A01 T02161016  RH  021%=      5-min Rain = 0
KCA1 291652Z 27009KT 22/M01 A3019 RMK A01 T02171014  RH  021%=      5-min Rain = 0
KCA1 291653Z 28009KT 22/M02 A3019 RMK A01 T02191015  RH  021%=      5-min Rain = 0
KCA1 291654Z 28012KT 22/M02 A3019 RMK A01 T02191017  RH  021%=      5-min Rain = 0
KCA1 291655Z 29011KT 22/M02 A3019 RMK A01 T02181020  RH  020%=      5-min Rain = 0
KCA1 291656Z 28011KT 22/M02 A3019 RMK A01 T02171020  RH  020%=      5-min Rain = 0
KCA1 291657Z 28009KT 22/M02 A3019 RMK A01 T02181017  RH  021%=      5-min Rain = 0
KCA1 291658Z 28009KT 22/M02 A3019 RMK A01 T02201015  RH  021%=      5-min Rain = 0
KCA1 291659Z 28010KT 22/M01 A3019 RMK A01 T02231014  RH  020%=      5-min Rain = 0
KCA1 291700Z 27009KT 22/M01 A3019 RMK A01 T02231014  RH  020%=      5-min Rain = 0
KCA1 291701Z 27010KT 22/M01 A3019 RMK A01 T02241013  RH  021%=      5-min Rain = 0
KCA1 291702Z 27010KT 22/M02 A3019 RMK A01 T02241016  RH  020%=      5-min Rain = 0
KCA1 291703Z 27010KT 22/M02 A3019 RMK A01 T02231015  RH  020%=      5-min Rain = 0
KCA1 291704Z 27012KT 22/M02 A3019 RMK A01 T02241015  RH  020%=      5-min Rain = 0
KCA1 291705Z 27011KT 22/M02 A3019 RMK A01 T02241017  RH  020%=      5-min Rain = 0
KCA1 291706Z 27010KT 22/M02 A3019 RMK A01 T02241017  RH  020%=      5-min Rain = 0
KCA1 291707Z 27012KT 23/M02 A3019 RMK A01 T02261016  RH  020%=      5-min Rain = 0
KCA1 291708Z 28009KT 23/M02 A3019 RMK A01 T02251020  RH  019%=      5-min Rain = 0
KCA1 291709Z 26010KT 22/M02 A3019 RMK A01 T02221020  RH  020%=      5-min Rain = 0
KCA1 291710Z 28008KT 23/M02 A3019 RMK A01 T02251016  RH  020%=      5-min Rain = 0
KCA1 291711Z 26010KT 23/M02 A3019 RMK A01 T02271015  RH  020%=      5-min Rain = 0
KCA1 291712Z 28013KT 23/M01 A3019 RMK A01 T02271013  RH  020%=      5-min Rain = 0
KCA1 291713Z 28010KT 23/M02 A3019 RMK A01 T02281016  RH  020%=      5-min Rain = 0
KCA1 291714Z 29009KT 23/M01 A3019 RMK A01 T02261014  RH  020%=      5-min Rain = 0
KCA1 291715Z 28012KT 23/M01 A3019 RMK A01 T02261014  RH  020%=      5-min Rain = 0
KCA1 291716Z 29011KT 23/M02 A3019 RMK A01 T02271017  RH  020%=      5-min Rain = 0
KCA1 291717Z 29011KT 23/M02 A3019 RMK A01 T02271018  RH  019%=      5-min Rain = 0
KCA1 291718Z 29009KT 23/M02 A3019 RMK A01 T02281018  RH  019%=      5-min Rain = 0
KCA1 291719Z 30009KT 23/M01 A3019 RMK A01 T02301013  RH  020%=      5-min Rain = 0
KCA1 291720Z 26010KT 23/M01 A3019 RMK A01 T02341010  RH  020%=      5-min Rain = 0
KCA1 291721Z 26009KT 24/M01 A3019 RMK A01 T02371013  RH  019%=      5-min Rain = 0
KCA1 291722Z 26008KT 24/M01 A3019 RMK A01 T02391011  RH  019%=      5-min Rain = 0
KCA1 291723Z 25012KT 24/M01 A3019 RMK A01 T02401012  RH  019%=      5-min Rain = 0
KCA1 291724Z 25012KT 24/M01 A3019 RMK A01 T02381012  RH  019%=      5-min Rain = 0
KCA1 291725Z 26009KT 24/M01 A3019 RMK A01 T02371014  RH  019%=      5-min Rain = 0
KCA1 291726Z 25008KT 24/M01 A3019 RMK A01 T02371012  RH  019%=      5-min Rain = 0
KCA1 291727Z 28010KT 24/M01 A3018 RMK A01 T02381013  RH  019%=      5-min Rain = 0
KCA1 291728Z 28012KT 24/M02 A3018 RMK A01 T02391017  RH  018%=      5-min Rain = 0
KCA1 291729Z 28008KT 24/M02 A3018 RMK A01 T02391020  RH  018%=      5-min Rain = 0
KCA1 291730Z 28008KT 24/M02 A3018 RMK A01 T02381021  RH  018%=      5-min Rain = 0
KCA1 291731Z 26009KT 24/M02 A3018 RMK A01 T02401017  RH  018%=      5-min Rain = 0
KCA1 291732Z 25009KT 24/M02 A3018 RMK A01 T02411015  RH  018%=      5-min Rain = 0
KCA1 291733Z 28012KT 24/M01 A3018 RMK A01 T02441013  RH  018%=      5-min Rain = 0
KCA1 291734Z 28009KT 25/M02 A3018 RMK A01 T02451015  RH  018%=      5-min Rain = 0
KCA1 291735Z 28009KT 24/M02 A3018 RMK A01 T02441017  RH  018%=      5-min Rain = 0
KCA1 291736Z 27007KT 24/M02 A3018 RMK A01 T02421016  RH  018%=      5-min Rain = 0
KCA1 291737Z 25011KT 24/M01 A3018 RMK A01 T02421014  RH  018%=      5-min Rain = 0
KCA1 291738Z 25013KT 24/M01 A3018 RMK A01 T02431013  RH  018%=      5-min Rain = 0
KCA1 291739Z 25011KT 24/M01 A3018 RMK A01 T02441014  RH  018%=      5-min Rain = 0
KCA1 291740Z 25011KT 24/M01 A3018 RMK A01 T02431014  RH  018%=      5-min Rain = 0
KCA1 291741Z 25009KT 24/M01 A3018 RMK A01 T02431012  RH  018%=      5-min Rain = 0
KCA1 291742Z 26008KT 24/M01 A3018 RMK A01 T02431012  RH  018%=      5-min Rain = 0
KCA1 291743Z 24007KT 24/M01 A3018 RMK A01 T02431011  RH  019%=      5-min Rain = 0
KCA1 291744Z 25008KT 25/M00 A3018 RMK A01 T02461004  RH  019%=      5-min Rain = 0
KCA1 291745Z 24011KT 25/M01 A3018 RMK A01 T02521005  RH  018%=      5-min Rain = 0
KCA1 291746Z 25011KT 26/M01 A3017 RMK A01 T02571013  RH  017%=      5-min Rain = 0
KCA1 291747Z 24011KT 26/M02 A3017 RMK A01 T02571019  RH  016%=      5-min Rain = 0
KCA1 291748Z 27010KT 26/M02 A3017 RMK A01 T02561019  RH  016%=      5-min Rain = 0
KCA1 291749Z 25014G19KT 25/M02 A3017 RMK A01 T02541020  RH  016%=      5-min Rain = 0
KCA1 291750Z 25014KT 25/M02 A3017 RMK A01 T02541018  RH  017%=      5-min Rain = 0
KCA1 291751Z 25012KT 25/M02 A3017 RMK A01 T02511018  RH  017%=      5-min Rain = 0
KCA1 291752Z 27009KT 25/M02 A3017 RMK A01 T02491021  RH  017%=      5-min Rain = 0
KCA1 291753Z 27008KT 25/M02 A3017 RMK A01 T02471020  RH  017%=      5-min Rain = 0
KCA1 291754Z 24008KT 25/M02 A3017 RMK A01 T02471016  RH  018%=      5-min Rain = 0
KCA1 291755Z 25012KT 25/M01 A3017 RMK A01 T02501011  RH  018%=      5-min Rain = 0
KCA1 291756Z 26008KT 25/M01 A3017 RMK A01 T02521011  RH  018%=      5-min Rain = 0
KCA1 291757Z 26008KT 25/M01 A3017 RMK A01 T02541009  RH  018%=      5-min Rain = 0
KCA1 291758Z 30009G14KT 26/M01 A3017 RMK A01 T02551010  RH  017%=      5-min Rain = 0
KCA1 291759Z 30010KT 25/M02 A3017 RMK A01 T02541019  RH  016%=      5-min Rain = 0
KCA1 291800Z 27008KT 25/M02 A3017 RMK A01 T02521015  RH  017%=      5-min Rain = 0
KCA1 291801Z 25010KT 26/M01 A3017 RMK A01 T02551014  RH  017%=      5-min Rain = 0
KCA1 291802Z 27011KT 26/M01 A3017 RMK A01 T02561012  RH  017%=      5-min Rain = 0
KCA1 291803Z 28011KT 26/M01 A3017 RMK A01 T02591014  RH  017%=      5-min Rain = 0
KCA1 291804Z 28011KT 26/M02 A3017 RMK A01 T02551018  RH  016%=      5-min Rain = 0
KCA1 291805Z 26009G15KT 25/M02 A3017 RMK A01 T02531019  RH  016%=      5-min Rain = 0
KCA1 291806Z 27011KT 25/M02 A3017 RMK A01 T02531019  RH  017%=      5-min Rain = 0
KCA1 291807Z 28011KT 26/M03 A3017 RMK A01 T02551025  RH  016%=      5-min Rain = 0
KCA1 291808Z 28009KT 26/M02 A3017 RMK A01 T02551020  RH  016%=      5-min Rain = 0
KCA1 291809Z 27011KT 26/M02 A3017 RMK A01 T02571015  RH  017%=      5-min Rain = 0
KCA1 291810Z 27009KT 26/M02 A3017 RMK A01 T02591017  RH  016%=      5-min Rain = 0
KCA1 291811Z 26007KT 26/M02 A3017 RMK A01 T02591018  RH  016%=      5-min Rain = 0
KCA1 291812Z 27008KT 26/M01 A3017 RMK A01 T02601013  RH  017%=      5-min Rain = 0
KCA1 291813Z 28010KT 27/M01 A3017 RMK A01 T02651011  RH  016%=      5-min Rain = 0
KCA1 291814Z 29009KT 27/M02 A3017 RMK A01 T02661017  RH  015%=      5-min Rain = 0
KCA1 291815Z 28011KT 26/M02 A3017 RMK A01 T02611019  RH  016%=      5-min Rain = 0
KCA1 291816Z 26010KT 26/M02 A3016 RMK A01 T02601015  RH  016%=      5-min Rain = 0
KCA1 291817Z 24013G18KT 26/M01 A3016 RMK A01 T02631012  RH  016%=      5-min Rain = 0
KCA1 291818Z 25016KT 26/M02 A3016 RMK A01 T02631015  RH  016%=      5-min Rain = 0
KCA1 291819Z 27016KT 26/M02 A3016 RMK A01 T02631016  RH  016%=      5-min Rain = 0
KCA1 291820Z 28016KT 26/M02 A3016 RMK A01 T02621019  RH  016%=      5-min Rain = 0
KCA1 291821Z 29012KT 26/M02 A3016 RMK A01 T02601019  RH  016%=      5-min Rain = 0
KCA1 291822Z 28009KT 26/M02 A3016 RMK A01 T02591017  RH  016%=      5-min Rain = 0
KCA1 291823Z 28012G19KT 26/M02 A3016 RMK A01 T02611016  RH  016%=      5-min Rain = 0
KCA1 291824Z 27011KT 26/M02 A3016 RMK A01 T02611019  RH  016%=      5-min Rain = 0
KCA1 291825Z 27014G21KT 26/M02 A3016 RMK A01 T02591020  RH  016%=      5-min Rain = 0
KCA1 291826Z 29012G17KT 26/M02 A3016 RMK A01 T02591021  RH  016%=      5-min Rain = 0
KCA1 291827Z 29012KT 26/M02 A3016 RMK A01 T02591018  RH  016%=      5-min Rain = 0
KCA1 291828Z 28009KT 26/M02 A3016 RMK A01 T02611015  RH  016%=      5-min Rain = 0
KCA1 291829Z 25009KT 26/M01 A3016 RMK A01 T02621014  RH  016%=      5-min Rain = 0
KCA1 291830Z 26009KT 26/M02 A3016 RMK A01 T02631016  RH  016%=      5-min Rain = 0
KCA1 291831Z 25008KT 26/M02 A3015 RMK A01 T02621017  RH  016%=      5-min Rain = 0
KCA1 291832Z 25012KT 26/M02 A3015 RMK A01 T02611017  RH  016%=      5-min Rain = 0
KCA1 291833Z 24013G18KT 26/M02 A3015 RMK A01 T02611016  RH  016%=      5-min Rain = 0
KCA1 291834Z 26011KT 26/M01 A3015 RMK A01 T02641013  RH  016%=      5-min Rain = 0
KCA1 291835Z 28014KT 27/M02 A3015 RMK A01 T02681016  RH  015%=      5-min Rain = 0
KCA1 291836Z 27012KT 27/M02 A3015 RMK A01 T02671018  RH  015%=      5-min Rain = 0
KCA1 291837Z 27013G18KT 27/M01 A3015 RMK A01 T02681014  RH  016%=      5-min Rain = 0
KCA1 291838Z 28012KT 27/M02 A3015 RMK A01 T02721018  RH  015%=      5-min Rain = 0
KCA1 291839Z 28008KT 27/M02 A3015 RMK A01 T02701020  RH  015%=      5-min Rain = 0
KCA1 291840Z 30008KT 27/M02 A3015 RMK A01 T02681021  RH  015%=      5-min Rain = 0
KCA1 291841Z 28006KT 26/M02 A3015 RMK A01 T02641021  RH  015%=      5-min Rain = 0
KCA1 291842Z 28006KT 26/M02 A3015 RMK A01 T02631020  RH  016%=      5-min Rain = 0
KCA1 291843Z 27010KT 26/M02 A3015 RMK A01 T02641017  RH  016%=      5-min Rain = 0
KCA1 291844Z 27009KT 27/M02 A3015 RMK A01 T02681019  RH  015%=      5-min Rain = 0
KCA1 291845Z 29011KT 27/M02 A3014 RMK A01 T02681023  RH  015%=      5-min Rain = 0
KCA1 291846Z 28015KT 27/M02 A3014 RMK A01 T02671023  RH  015%=      5-min Rain = 0
KCA1 291847Z 29012KT 27/M02 A3014 RMK A01 T02661024  RH  015%=      5-min Rain = 0
KCA1 291848Z 28012KT 27/M02 A3014 RMK A01 T02661022  RH  015%=      5-min Rain = 0
KCA1 291849Z 27014KT 27/M02 A3014 RMK A01 T02681020  RH  015%=      5-min Rain = 0
KCA1 291850Z 26012KT 27/M02 A3014 RMK A01 T02681023  RH  015%=      5-min Rain = 0
KCA1 291851Z 26015KT 27/M02 A3014 RMK A01 T02691020  RH  015%=      5-min Rain = 0
KCA1 291852Z 26015KT 27/M02 A3014 RMK A01 T02711023  RH  014%=      5-min Rain = 0
KCA1 291853Z 26014KT 27/M02 A3014 RMK A01 T02721023  RH  014%=      5-min Rain = 0
KCA1 291854Z 26011KT 27/M02 A3013 RMK A01 T02711024  RH  014%=      5-min Rain = 0
KCA1 291855Z 26015G20KT 27/M03 A3013 RMK A01 T02691025  RH  014%=      5-min Rain = 0
KCA1 291856Z 26016KT 27/M02 A3013 RMK A01 T02691023  RH  015%=      5-min Rain = 0
KCA1 291857Z 25014KT 27/M02 A3013 RMK A01 T02691024  RH  015%=      5-min Rain = 0
KCA1 291858Z 25014KT 27/M02 A3013 RMK A01 T02701022  RH  015%=      5-min Rain = 0
KCA1 291859Z 25016KT 27/M02 A3013 RMK A01 T02721022  RH  014%=      5-min Rain = 0
KCA1 291900Z 26013KT 27/M02 A3013 RMK A01 T02731023  RH  014%=      5-min Rain = 0
KCA1 291901Z 26012KT 27/M03 A3013 RMK A01 T02741025  RH  014%=      5-min Rain = 0
KCA1 291902Z 27010KT 27/M03 A3013 RMK A01 T02741026  RH  014%=      5-min Rain = 0
KCA1 291903Z 27010KT 27/M03 A3013 RMK A01 T02741028  RH  014%=      5-min Rain = 0
KCA1 291904Z 27006G11KT 27/M03 A3013 RMK A01 T02701031  RH  014%=      5-min Rain = 0
KCA1 291905Z 26005KT 27/M03 A3013 RMK A01 T02661030  RH  014%=      5-min Rain = 0
KCA1 291906Z 26005KT 27/M03 A3013 RMK A01 T02671027  RH  014%=      5-min Rain = 0
KCA1 291907Z 25005G10KT 27/M03 A3012 RMK A01 T02691029  RH  014%=      5-min Rain = 0
KCA1 291908Z 25008KT 27/M03 A3012 RMK A01 T02721026  RH  014%=      5-min Rain = 0
KCA1 291909Z 25008KT 28/M03 A3012 RMK A01 T02761026  RH  014%=      5-min Rain = 0
KCA1 291910Z 29013G18KT 28/M03 A3012 RMK A01 T02771027  RH  013%=      5-min Rain = 0
KCA1 291911Z 31014KT 28/M04 A3012 RMK A01 T02771035  RH  013%=      5-min Rain = 0
KCA1 291912Z 30013KT 27/M04 A3012 RMK A01 T02741036  RH  013%=      5-min Rain = 0
KCA1 291913Z 30011KT 27/M04 A3012 RMK A01 T02741037  RH  013%=      5-min Rain = 0
KCA1 291914Z 30012KT 27/M04 A3012 RMK A01 T02741038  RH  013%=      5-min Rain = 0
KCA1 291915Z 29011KT 27/M04 A3012 RMK A01 T02741038  RH  013%=      5-min Rain = 0
KCA1 291916Z 28010KT 27/M03 A3012 RMK A01 T02741033  RH  013%=      5-min Rain = 0
KCA1 291917Z 26012G18KT 28/M03 A3012 RMK A01 T02761030  RH  013%=      5-min Rain = 0
KCA1 291918Z 28014G20KT 28/M03 A3012 RMK A01 T02801027  RH  013%=      5-min Rain = 0
KCA1 291919Z 29014KT 28/M03 A3012 RMK A01 T02811034  RH  013%=      5-min Rain = 0
KCA1 291920Z 31010KT 28/M04 A3012 RMK A01 T02771036  RH  013%=      5-min Rain = 0
KCA1 291921Z 31009KT 27/M04 A3012 RMK A01 T02741035  RH  013%=      5-min Rain = 0
KCA1 291922Z 29011KT 27/M03 A3011 RMK A01 T02731034  RH  013%=      5-min Rain = 0
KCA1 291923Z 27013KT 27/M04 A3012 RMK A01 T02731035  RH  013%=      5-min Rain = 0
KCA1 291924Z 29011KT 28/M04 A3012 RMK A01 T02761037  RH  013%=      5-min Rain = 0
KCA1 291925Z 29012G18KT 28/M04 A3011 RMK A01 T02781041  RH  012%=      5-min Rain = 0
KCA1 291926Z 31014KT 28/M04 A3011 RMK A01 T02801037  RH  012%=      5-min Rain = 0
KCA1 291927Z 30016KT 28/M04 A3011 RMK A01 T02831036  RH  012%=      5-min Rain = 0
KCA1 291928Z 30013G18KT 28/M04 A3011 RMK A01 T02791043  RH  012%=      5-min Rain = 0
KCA1 291929Z 30012KT 28/M04 A3011 RMK A01 T02761043  RH  012%=      5-min Rain = 0
KCA1 291930Z 29012KT 28/M04 A3011 RMK A01 T02761043  RH  012%=      5-min Rain = 0
KCA1 291931Z 31010KT 28/M05 A3011 RMK A01 T02751046  RH  012%=      5-min Rain = 0
KCA1 291932Z 31009KT 27/M05 A3011 RMK A01 T02721047  RH  012%=      5-min Rain = 0
KCA1 291933Z 32009KT 27/M05 A3011 RMK A01 T02701049  RH  012%=      5-min Rain = 0
KCA1 291934Z 35010KT 27/M05 A3011 RMK A01 T02691046  RH  012%=      5-min Rain = 0
KCA1 291935Z 32010KT 27/M04 A3011 RMK A01 T02691044  RH  012%=      5-min Rain = 0
KCA1 291936Z 28010KT 27/M04 A3011 RMK A01 T02721043  RH  012%=      5-min Rain = 0
KCA1 291937Z 27011KT 28/M04 A3011 RMK A01 T02761043  RH  012%=      5-min Rain = 0
KCA1 291938Z 27012KT 28/M04 A3011 RMK A01 T02791039  RH  012%=      5-min Rain = 0
KCA1 291939Z 26010KT 28/M04 A3011 RMK A01 T02791039  RH  012%=      5-min Rain = 0
KCA1 291940Z 27009KT 28/M04 A301 RMK A01 T02781038  RH  012%=      5-min Rain = 0
KCA1 291941Z 29016KT 28/M04 A301 RMK A01 T02821035  RH  012%=      5-min Rain = 0
KCA1 291942Z 29013KT 28/M04 A301 RMK A01 T02841036  RH  012%=      5-min Rain = 0
KCA1 291943Z 31016KT 28/M04 A301 RMK A01 T02841043  RH  012%=      5-min Rain = 0
KCA1 291944Z 31012KT 28/M05 A301 RMK A01 T02791047  RH  012%=      5-min Rain = 0
KCA1 291945Z 26010G15KT 28/M04 A301 RMK A01 T02781041  RH  012%=      5-min Rain = 0
KCA1 291946Z 27011KT 28/M04 A301 RMK A01 T02811044  RH  012%=      5-min Rain = 0
KCA1 291947Z 26011KT 28/M04 A301 RMK A01 T02821042  RH  012%=      5-min Rain = 0
KCA1 291948Z 25012KT 28/M04 A301 RMK A01 T02831041  RH  012%=      5-min Rain = 0
KCA1 291949Z 26011KT 28/M04 A301 RMK A01 T02831041  RH  012%=      5-min Rain = 0
KCA1 291950Z 26009KT 28/M04 A301 RMK A01 T02841040  RH  012%=      5-min Rain = 0
KCA1 291951Z 27013KT 29/M04 A301 RMK A01 T02851041  RH  012%=      5-min Rain = 0
KCA1 291952Z 26013KT 28/M04 A301 RMK A01 T02841043  RH  012%=      5-min Rain = 0
KCA1 291953Z 27012KT 28/M04 A301 RMK A01 T02821043  RH  012%=      5-min Rain = 0
KCA1 291954Z 26012KT 28/M04 A301 RMK A01 T02801044  RH  012%=      5-min Rain = 0
KCA1 291955Z 24010KT 28/M05 A301 RMK A01 T02791046  RH  012%=      5-min Rain = 0
KCA1 291956Z 25008KT 28/M05 A301 RMK A01 T02781045  RH  012%=      5-min Rain = 0
KCA1 291957Z 26006KT 28/M04 A301 RMK A01 T02791043  RH  012%=      5-min Rain = 0
KCA1 291958Z 28006KT 28/M04 A301 RMK A01 T02811041  RH  012%=      5-min Rain = 0
KCA1 291959Z 26010KT 28/M04 A3009 RMK A01 T02821044  RH  012%=      5-min Rain = 0
KCA1 292000Z 28009KT 28/M05 A3009 RMK A01 T02821045  RH  011%=      5-min Rain = 0
KCA1 292001Z 31010KT 28/M04 A3009 RMK A01 T02841042  RH  012%=      5-min Rain = 0
KCA1 292002Z 31012KT 28/M04 A3009 RMK A01 T02841043  RH  011%=      5-min Rain = 0
KCA1 292003Z 30012KT 28/M04 A3009 RMK A01 T02831044  RH  011%=      5-min Rain = 0
KCA1 292004Z 31010KT 28/M05 A3009 RMK A01 T02821047  RH  011%=      5-min Rain = 0
KCA1 292005Z 30010G16KT 28/M05 A3009 RMK A01 T02811045  RH  012%=      5-min Rain = 0
KCA1 292006Z 30012KT 28/M05 A3009 RMK A01 T02811047  RH  011%=      5-min Rain = 0
KCA1 292007Z 32008KT 28/M05 A3009 RMK A01 T02801048  RH  011%=      5-min Rain = 0
KCA1 292008Z 29011KT 28/M05 A3009 RMK A01 T02811046  RH  011%=      5-min Rain = 0
KCA1 292009Z 30015KT 28/M04 A3009 RMK A01 T02841041  RH  012%=      5-min Rain = 0
KCA1 292010Z 29012G17KT 29/M05 A3009 RMK A01 T02851050  RH  011%=      5-min Rain = 0
KCA1 292011Z 27013G18KT 28/M05 A3009 RMK A01 T02821051  RH  011%=      5-min Rain = 0
KCA1 292012Z 27012KT 28/M05 A3009 RMK A01 T02811052  RH  011%=      5-min Rain = 0
KCA1 292013Z 28012KT 28/M05 A3009 RMK A01 T02821049  RH  011%=      5-min Rain = 0
KCA1 292014Z 29007KT 28/M05 A3009 RMK A01 T02821050  RH  011%=      5-min Rain = 0
KCA1 292015Z 29007KT 28/M05 A3009 RMK A01 T02811049  RH  011%=      5-min Rain = 0
KCA1 292016Z 30012KT 28/M04 A3009 RMK A01 T02811043  RH  012%=      5-min Rain = 0
KCA1 292017Z 28014KT 29/M04 A3009 RMK A01 T02851042  RH  012%=      5-min Rain = 0
KCA1 292018Z 28014KT 29/M05 A3009 RMK A01 T02851048  RH  011%=      5-min Rain = 0
KCA1 292019Z 28011KT 28/M05 A3009 RMK A01 T02841049  RH  011%=      5-min Rain = 0
KCA1 292020Z 26011KT 28/M05 A3009 RMK A01 T02821047  RH  011%=      5-min Rain = 0
KCA1 292021Z 26009KT 28/M05 A3009 RMK A01 T02821045  RH  011%=      5-min Rain = 0
KCA1 292022Z 25010KT 29/M05 A3009 RMK A01 T02851045  RH  011%=      5-min Rain = 0
KCA1 292023Z 28010KT 29/M05 A3009 RMK A01 T02851047  RH  011%=      5-min Rain = 0
KCA1 292024Z 26009KT 28/M05 A3009 RMK A01 T02811048  RH  011%=      5-min Rain = 0
KCA1 292025Z 25008KT 28/M04 A3009 RMK A01 T02811044  RH  012%=      5-min Rain = 0
KCA1 292026Z 27006G11KT 28/M04 A3009 RMK A01 T02841043  RH  012%=      5-min Rain = 0
KCA1 292027Z 26005KT 29/M04 A3009 RMK A01 T02851044  RH  011%=      5-min Rain = 0
KCA1 292028Z 29009KT 29/M04 A3009 RMK A01 T02851044  RH  011%=      5-min Rain = 0
KCA1 292029Z 27008KT 28/M05 A3008 RMK A01 T02831046  RH  011%=      5-min Rain = 0
KCA1 292030Z 26005KT 28/M04 A3008 RMK A01 T02821044  RH  012%=      5-min Rain = 0
KCA1 292031Z 28007KT 28/M04 A3008 RMK A01 T02831041  RH  012%=      5-min Rain = 0
KCA1 292032Z 28008KT 29/M04 A3008 RMK A01 T02851042  RH  011%=      5-min Rain = 0
KCA1 292033Z 26011G18KT 29/M04 A3008 RMK A01 T02861044  RH  011%=      5-min Rain = 0
KCA1 292034Z 27014KT 29/M05 A3008 RMK A01 T02861051  RH  011%=      5-min Rain = 0
KCA1 292035Z 27012KT 29/M05 A3008 RMK A01 T02861052  RH  011%=      5-min Rain = 0
KCA1 292036Z 27018G23KT 29/M05 A3008 RMK A01 T02861053  RH  011%=      5-min Rain = 0
KCA1 292037Z 29014G20KT 29/M06 A3008 RMK A01 T02871055  RH  010%=      5-min Rain = 0
KCA1 292038Z 31013KT 29/M05 A3008 RMK A01 T02861052  RH  011%=      5-min Rain = 0
KCA1 292039Z 32011KT 29/M05 A3008 RMK A01 T02851054  RH  010%=      5-min Rain = 0
KCA1 292040Z 30009KT 28/M06 A3008 RMK A01 T02831057  RH  010%=      5-min Rain = 0
KCA1 292041Z 30008KT 28/M06 A3008 RMK A01 T02811057  RH  011%=      5-min Rain = 0
KCA1 292042Z 30010KT 28/M05 A3008 RMK A01 T02811054  RH  011%=      5-min Rain = 0
KCA1 292043Z 31011KT 28/M05 A3008 RMK A01 T02831053  RH  011%=      5-min Rain = 0
KCA1 292044Z 30016KT 28/M05 A3008 RMK A01 T02841053  RH  011%=      5-min Rain = 0
KCA1 292045Z 30015KT 28/M06 A3008 RMK A01 T02841055  RH  011%=      5-min Rain = 0
KCA1 292046Z 30013KT 28/M05 A3008 RMK A01 T02831053  RH  011%=      5-min Rain = 0
KCA1 292047Z 29013KT 28/M05 A3008 RMK A01 T02831051  RH  011%=      5-min Rain = 0
KCA1 292048Z 30009KT 28/M05 A3007 RMK A01 T02841052  RH  011%=      5-min Rain = 0
KCA1 292049Z 28007KT 29/M05 A3007 RMK A01 T02851050  RH  011%=      5-min Rain = 0
KCA1 292050Z 28009G14KT 29/M05 A3007 RMK A01 T02891045  RH  011%=      5-min Rain = 0
KCA1 292051Z 29012KT 29/M05 A3007 RMK A01 T02921051  RH  010%=      5-min Rain = 0
KCA1 292052Z 28011KT 29/M06 A3007 RMK A01 T02891055  RH  010%=      5-min Rain = 0
KCA1 292053Z 26010KT 29/M05 A3007 RMK A01 T02851053  RH  011%=      5-min Rain = 0
KCA1 292054Z 26012KT 29/M05 A3007 RMK A01 T02851048  RH  011%=      5-min Rain = 0
KCA1 292055Z 27012KT 29/M05 A3007 RMK A01 T02881047  RH  011%=      5-min Rain = 0
KCA1 292056Z 27011G16KT 29/M05 A3007 RMK A01 T02891045  RH  011%=      5-min Rain = 0
KCA1 292057Z 25013KT 29/M04 A3007 RMK A01 T02911043  RH  011%=      5-min Rain = 0
KCA1 292058Z 26012KT 29/M04 A3007 RMK A01 T02921043  RH  011%=      5-min Rain = 0
KCA1 292059Z 26013KT 29/M04 A3007 RMK A01 T02921044  RH  011%=      5-min Rain = 0
KCA1 292100Z 26012KT 29/M05 A3007 RMK A01 T02911049  RH  011%=      5-min Rain = 0
KCA1 292101Z 26011KT 29/M05 A3007 RMK A01 T02871050  RH  011%=      5-min Rain = 0
KCA1 292102Z 25010KT 29/M05 A3007 RMK A01 T02861050  RH  011%=      5-min Rain = 0
KCA1 292103Z 28008KT 29/M05 A3007 RMK A01 T02851049  RH  011%=      5-min Rain = 0
KCA1 292104Z 30005KT 29/M05 A3007 RMK A01 T02851049  RH  011%=      5-min Rain = 0
KCA1 292105Z 30006KT 28/M05 A3007 RMK A01 T02841050  RH  011%=      5-min Rain = 0
KCA1 292106Z 28007KT 28/M05 A3007 RMK A01 T02831046  RH  011%=      5-min Rain = 0
KCA1 292107Z 26009KT 29/M05 A3007 RMK A01 T02861049  RH  011%=      5-min Rain = 0
KCA1 292108Z 26010KT 29/M05 A3006 RMK A01 T02871050  RH  011%=      5-min Rain = 0
KCA1 292109Z 26013KT 29/M05 A3006 RMK A01 T02891048  RH  011%=      5-min Rain = 0
KCA1 292110Z 27012KT 29/M05 A3006 RMK A01 T02901049  RH  011%=      5-min Rain = 0
KCA1 292111Z 26012KT 29/M05 A3006 RMK A01 T02891050  RH  011%=      5-min Rain = 0
KCA1 292112Z 27007KT 29/M05 A3006 RMK A01 T02881049  RH  011%=      5-min Rain = 0
KCA1 292113Z 26007KT 29/M05 A3006 RMK A01 T02891045  RH  011%=      5-min Rain = 0
KCA1 292114Z 27010KT 29/M04 A3006 RMK A01 T02931042  RH  011%=      5-min Rain = 0
KCA1 292115Z 27008KT 29/M04 A3006 RMK A01 T02941044  RH  011%=      5-min Rain = 0
KCA1 292116Z 26009KT 30/M04 A3006 RMK A01 T02961041  RH  011%=      5-min Rain = 0
KCA1 292117Z 25012KT 30/M05 A3006 RMK A01 T02971045  RH  011%=      5-min Rain = 0
KCA1 292118Z 25010KT 30/M05 A3006 RMK A01 T02951046  RH  011%=      5-min Rain = 0
KCA1 292119Z 25014KT 29/M05 A3006 RMK A01 T02941046  RH  011%=      5-min Rain = 0
KCA1 292120Z 25013KT 29/M05 A3006 RMK A01 T02911050  RH  010%=      5-min Rain = 0
KCA1 292121Z 25014KT 29/M05 A3006 RMK A01 T02901046  RH  011%=      5-min Rain = 0
KCA1 292122Z 25013KT 29/M05 A3006 RMK A01 T02901046  RH  011%=      5-min Rain = 0
KCA1 292123Z 26012KT 29/M05 A3006 RMK A01 T02901046  RH  011%=      5-min Rain = 0
KCA1 292124Z 29014KT 29/M05 A3006 RMK A01 T02911048  RH  011%=      5-min Rain = 0
KCA1 292125Z 29014KT 29/M05 A3006 RMK A01 T02881053  RH  010%=      5-min Rain = 0
KCA1 292126Z 29010KT 29/M05 A3006 RMK A01 T02851053  RH  011%=      5-min Rain = 0
KCA1 292127Z 29006KT 29/M05 A3006 RMK A01 T02851050  RH  011%=      5-min Rain = 0
KCA1 292128Z 29008KT 29/M05 A3006 RMK A01 T02861049  RH  011%=      5-min Rain = 0
KCA1 292129Z 28006KT 29/M05 A3006 RMK A01 T02871046  RH  011%=      5-min Rain = 0
KCA1 292130Z 28008G16KT 29/M04 A3006 RMK A01 T02921042  RH  011%=      5-min Rain = 0
KCA1 292131Z 27012KT 29/M05 A3006 RMK A01 T02941045  RH  011%=      5-min Rain = 0
KCA1 292132Z 27011G16KT 29/M05 A3006 RMK A01 T02941045  RH  011%=      5-min Rain = 0
KCA1 292133Z 28012KT 29/M05 A3006 RMK A01 T02941048  RH  010%=      5-min Rain = 0
KCA1 292134Z 27011KT 29/M05 A3006 RMK A01 T02921051  RH  010%=      5-min Rain = 0
KCA1 292135Z 29009KT 29/M05 A3006 RMK A01 T02911050  RH  010%=      5-min Rain = 0
KCA1 292136Z 29008KT 29/M05 A3006 RMK A01 T02901051  RH  011%=      5-min Rain = 0
KCA1 292137Z 30008KT 29/M05 A3006 RMK A01 T02891050  RH  011%=      5-min Rain = 0
KCA1 292138Z 27007KT 29/M05 A3006 RMK A01 T02891049  RH  011%=      5-min Rain = 0
KCA1 292139Z 26011KT 29/M04 A3006 RMK A01 T02921043  RH  011%=      5-min Rain = 0
KCA1 292140Z 27013KT 29/M05 A3006 RMK A01 T02941046  RH  011%=      5-min Rain = 0
KCA1 292141Z 27009KT 29/M05 A3006 RMK A01 T02921049  RH  010%=      5-min Rain = 0
KCA1 292142Z 27011KT 29/M05 A3006 RMK A01 T02911049  RH  011%=      5-min Rain = 0
KCA1 292143Z 27011KT 29/M05 A3006 RMK A01 T02911048  RH  011%=      5-min Rain = 0
KCA1 292144Z 26011G16KT 29/M05 A3005 RMK A01 T02911046  RH  011%=      5-min Rain = 0
KCA1 292145Z 25011KT 29/M05 A3005 RMK A01 T02911046  RH  011%=      5-min Rain = 0
KCA1 292146Z 25010KT 29/M05 A3005 RMK A01 T02901047  RH  011%=      5-min Rain = 0
KCA1 292147Z 26012KT 29/M04 A3005 RMK A01 T02901043  RH  011%=      5-min Rain = 0
KCA1 292148Z 26010KT 29/M04 A3005 RMK A01 T02911043  RH  011%=      5-min Rain = 0
KCA1 292149Z 25010KT 29/M04 A3005 RMK A01 T02911041  RH  011%=      5-min Rain = 0
KCA1 292150Z 26011KT 29/M04 A3005 RMK A01 T02911042  RH  011%=      5-min Rain = 0
KCA1 292151Z 26009KT 29/M04 A3005 RMK A01 T02921043  RH  011%=      5-min Rain = 0
KCA1 292152Z 26007KT 29/M05 A3005 RMK A01 T02911045  RH  011%=      5-min Rain = 0
KCA1 292153Z 27008KT 29/M04 A3005 RMK A01 T02901043  RH  011%=      5-min Rain = 0
KCA1 292154Z 27010KT 29/M04 A3005 RMK A01 T02911044  RH  011%=      5-min Rain = 0
KCA1 292155Z 27010KT 29/M04 A3005 RMK A01 T02911043  RH  011%=      5-min Rain = 0
KCA1 292156Z 28012KT 29/M04 A3005 RMK A01 T02911042  RH  011%=      5-min Rain = 0
KCA1 292157Z 28010KT 29/M04 A3005 RMK A01 T02911044  RH  011%=      5-min Rain = 0
KCA1 292158Z 27011KT 29/M04 A3005 RMK A01 T02911043  RH  011%=      5-min Rain = 0
KCA1 292159Z 28011KT 29/M04 A3005 RMK A01 T02911043  RH  011%=      5-min Rain = 0
KCA1 292200Z 29009KT 29/M04 A3005 RMK A01 T02911043  RH  011%=      5-min Rain = 0
KCA1 292201Z 27011KT 29/M04 A3005 RMK A01 T02901043  RH  011%=      5-min Rain = 0
KCA1 292202Z 27009KT 29/M04 A3005 RMK A01 T02901043  RH  011%=      5-min Rain = 0
KCA1 292203Z 27010KT 29/M04 A3005 RMK A01 T02901044  RH  011%=      5-min Rain = 0
KCA1 292204Z 26010KT 29/M04 A3005 RMK A01 T02901042  RH  011%=      5-min Rain = 0
KCA1 292205Z 26010KT 29/M04 A3005 RMK A01 T02911040  RH  011%=      5-min Rain = 0
KCA1 292206Z 26011KT 29/M04 A3005 RMK A01 T02911042  RH  011%=      5-min Rain = 0
KCA1 292207Z 27008KT 29/M04 A3005 RMK A01 T02901044  RH  011%=      5-min Rain = 0
KCA1 292208Z 26006KT 29/M05 A3005 RMK A01 T02901045  RH  011%=      5-min Rain = 0
KCA1 292209Z 28003KT 29/M04 A3005 RMK A01 T02901044  RH  011%=      5-min Rain = 0
KCA1 292210Z 25003KT 29/M05 A3005 RMK A01 T02891045  RH  011%=      5-min Rain = 0
KCA1 292211Z 25007KT 29/M04 A3005 RMK A01 T02891042  RH  011%=      5-min Rain = 0
KCA1 292212Z 24008KT 29/M04 A3005 RMK A01 T02901038  RH  012%=      5-min Rain = 0
KCA1 292213Z 25010KT 29/M04 A3005 RMK A01 T02911036  RH  012%=      5-min Rain = 0
KCA1 292214Z 26012KT 29/M04 A3005 RMK A01 T02931038  RH  011%=      5-min Rain = 0
KCA1 292215Z 27011KT 29/M04 A3005 RMK A01 T02921040  RH  011%=      5-min Rain = 0
KCA1 292216Z 25008KT 29/M04 A3005 RMK A01 T02911038  RH  011%=      5-min Rain = 0
KCA1 292217Z 26009KT 29/M04 A3005 RMK A01 T02921036  RH  012%=      5-min Rain = 0
KCA1 292218Z 26009KT 29/M04 A3005 RMK A01 T02931039  RH  011%=      5-min Rain = 0
KCA1 292219Z 28010KT 29/M04 A3005 RMK A01 T02931042  RH  011%=      5-min Rain = 0
KCA1 292220Z 25010KT 29/M04 A3005 RMK A01 T02901043  RH  011%=      5-min Rain = 0
KCA1 292221Z 26010KT 29/M04 A3005 RMK A01 T02891041  RH  011%=      5-min Rain = 0
KCA1 292222Z 26010KT 29/M04 A3005 RMK A01 T02891041  RH  011%=      5-min Rain = 0
KCA1 292223Z 27008KT 29/M04 A3005 RMK A01 T02891041  RH  011%=      5-min Rain = 0
KCA1 292224Z 27009KT 29/M04 A3005 RMK A01 T02891040  RH  011%=      5-min Rain = 0
KCA1 292225Z 26007KT 29/M04 A3005 RMK A01 T02881038  RH  012%=      5-min Rain = 0
KCA1 292226Z 25010KT 29/M04 A3005 RMK A01 T02881038  RH  012%=      5-min Rain = 0
KCA1 292227Z 25011KT 29/M04 A3005 RMK A01 T02891037  RH  012%=      5-min Rain = 0
KCA1 292228Z 26010KT 29/M04 A3004 RMK A01 T02891038  RH  012%=      5-min Rain = 0
KCA1 292229Z 26008KT 29/M04 A3004 RMK A01 T02891036  RH  012%=      5-min Rain = 0
KCA1 292230Z 24008KT 29/M03 A3004 RMK A01 T02891032  RH  012%=      5-min Rain = 0
KCA1 292231Z 26009KT 29/M03 A3004 RMK A01 T02901031  RH  012%=      5-min Rain = 0
KCA1 292232Z 25010KT 29/M03 A3004 RMK A01 T02911031  RH  012%=      5-min Rain = 0
KCA1 292233Z 25013KT 29/M03 A3004 RMK A01 T02911033  RH  012%=      5-min Rain = 0
KCA1 292234Z 25011KT 29/M04 A3004 RMK A01 T02901037  RH  012%=      5-min Rain = 0
KCA1 292235Z 25010KT 29/M04 A3004 RMK A01 T02891038  RH  012%=      5-min Rain = 0
KCA1 292236Z 24012KT 29/M04 A3004 RMK A01 T02891036  RH  012%=      5-min Rain = 0
KCA1 292237Z 25011KT 29/M04 A3004 RMK A01 T02891038  RH  012%=      5-min Rain = 0
KCA1 292238Z 26010KT 29/M04 A3004 RMK A01 T02881037  RH  012%=      5-min Rain = 0
KCA1 292239Z 25011KT 29/M04 A3004 RMK A01 T02881039  RH  012%=      5-min Rain = 0
KCA1 292240Z 25012KT 29/M04 A3004 RMK A01 T02871039  RH  012%=      5-min Rain = 0
KCA1 292241Z 26011KT 29/M04 A3004 RMK A01 T02861040  RH  012%=      5-min Rain = 0
KCA1 292242Z 26007KT 29/M04 A3004 RMK A01 T02861040  RH  012%=      5-min Rain = 0
KCA1 292243Z 26007KT 29/M04 A3004 RMK A01 T02871038  RH  012%=      5-min Rain = 0
KCA1 292244Z 26008KT 29/M04 A3004 RMK A01 T02871038  RH  012%=      5-min Rain = 0
KCA1 292245Z 25008KT 29/M04 A3004 RMK A01 T02881040  RH  012%=      5-min Rain = 0
KCA1 292246Z 28005KT 29/M04 A3004 RMK A01 T02871039  RH  012%=      5-min Rain = 0
KCA1 292247Z 28006KT 29/M04 A3004 RMK A01 T02871036  RH  012%=      5-min Rain = 0
KCA1 292248Z 29007KT 29/M04 A3004 RMK A01 T02881038  RH  012%=      5-min Rain = 0
KCA1 292249Z 28009KT 29/M04 A3004 RMK A01 T02881037  RH  012%=      5-min Rain = 0
KCA1 292250Z 28008KT 29/M04 A3004 RMK A01 T02881038  RH  012%=      5-min Rain = 0
KCA1 292251Z 28009KT 29/M04 A3004 RMK A01 T02871037  RH  012%=      5-min Rain = 0
KCA1 292252Z 28009KT 29/M04 A3004 RMK A01 T02871040  RH  012%=      5-min Rain = 0
KCA1 292253Z 27007KT 29/M04 A3004 RMK A01 T02861039  RH  012%=      5-min Rain = 0
KCA1 292254Z 26008KT 29/M04 A3004 RMK A01 T02861037  RH  012%=      5-min Rain = 0
KCA1 292255Z 26008KT 29/M04 A3004 RMK A01 T02871035  RH  012%=      5-min Rain = 0
KCA1 292256Z 27009KT 29/M04 A3004 RMK A01 T02871035  RH  012%=      5-min Rain = 0
KCA1 292257Z 26009KT 29/M04 A3004 RMK A01 T02871037  RH  012%=      5-min Rain = 0
KCA1 292258Z 26010KT 29/M04 A3004 RMK A01 T02871036  RH  012%=      5-min Rain = 0
KCA1 292259Z 26010KT 29/M04 A3004 RMK A01 T02871039  RH  012%=      5-min Rain = 0
KCA1 292300Z 27007KT 29/M03 A3004 RMK A01 T02861034  RH  012%=      5-min Rain = 0
KCA1 292301Z 27008KT 29/M04 A3004 RMK A01 T02861035  RH  012%=      5-min Rain = 0
KCA1 292302Z 26007KT 29/M04 A3004 RMK A01 T02861037  RH  012%=      5-min Rain = 0
KCA1 292303Z 27008KT 29/M04 A3004 RMK A01 T02861036  RH  012%=      5-min Rain = 0
KCA1 292304Z 26007KT 29/M04 A3004 RMK A01 T02861039  RH  012%=      5-min Rain = 0
KCA1 292305Z 27007KT 29/M04 A3004 RMK A01 T02851039  RH  012%=      5-min Rain = 0
KCA1 292306Z 26007KT 28/M04 A3004 RMK A01 T02841038  RH  012%=      5-min Rain = 0
KCA1 292307Z 25007KT 28/M03 A3004 RMK A01 T02841034  RH  012%=      5-min Rain = 0
KCA1 292308Z 26006KT 28/M04 A3004 RMK A01 T02841035  RH  012%=      5-min Rain = 0
KCA1 292309Z 26008KT 28/M04 A3004 RMK A01 T02841036  RH  012%=      5-min Rain = 0
KCA1 292310Z 25007KT 28/M04 A3004 RMK A01 T02841038  RH  012%=      5-min Rain = 0
KCA1 292311Z 25007KT 28/M04 A3004 RMK A01 T02841035  RH  012%=      5-min Rain = 0
KCA1 292312Z 25007KT 28/M03 A3004 RMK A01 T02841034  RH  012%=      5-min Rain = 0
KCA1 292313Z 26007KT 28/M04 A3004 RMK A01 T02831035  RH  012%=      5-min Rain = 0
KCA1 292314Z 26007KT 28/M03 A3004 RMK A01 T02831034  RH  012%=      5-min Rain = 0
KCA1 292315Z 26006KT 28/M03 A3004 RMK A01 T02821034  RH  012%=      5-min Rain = 0
KCA1 292316Z 25005KT 28/M03 A3004 RMK A01 T02821029  RH  013%=      5-min Rain = 0
KCA1 292317Z 25006KT 28/M03 A3004 RMK A01 T02821026  RH  013%=      5-min Rain = 0
KCA1 292318Z 25005KT 28/M03 A3004 RMK A01 T02821025  RH  013%=      5-min Rain = 0
KCA1 292319Z 26004KT 28/M02 A3004 RMK A01 T02821023  RH  013%=      5-min Rain = 0
KCA1 292320Z 26004KT 28/M03 A3004 RMK A01 T02831025  RH  013%=      5-min Rain = 0
KCA1 292321Z 26005KT 28/M02 A3004 RMK A01 T02831023  RH  013%=      5-min Rain = 0
KCA1 292322Z 25005KT 28/M03 A3004 RMK A01 T02831026  RH  013%=      5-min Rain = 0
KCA1 292323Z 25006KT 28/M02 A3004 RMK A01 T02831024  RH  013%=      5-min Rain = 0
KCA1 292324Z 25006KT 28/M02 A3004 RMK A01 T02831023  RH  013%=      5-min Rain = 0
KCA1 292325Z 26007KT 28/M02 A3004 RMK A01 T02821024  RH  013%=      5-min Rain = 0
KCA1 292326Z 26008KT 28/M03 A3004 RMK A01 T02811025  RH  013%=      5-min Rain = 0
KCA1 292327Z 25007KT 28/M03 A3004 RMK A01 T02801028  RH  013%=      5-min Rain = 0
KCA1 292328Z 26007KT 28/M03 A3004 RMK A01 T02791028  RH  013%=      5-min Rain = 0
KCA1 292329Z 25006KT 28/M03 A3004 RMK A01 T02791026  RH  013%=      5-min Rain = 0
KCA1 292330Z 25007KT 28/M03 A3004 RMK A01 T02781026  RH  013%=      5-min Rain = 0
KCA1 292331Z 25006KT 28/M03 A3004 RMK A01 T02781025  RH  014%=      5-min Rain = 0
KCA1 292332Z 25008KT 28/M03 A3004 RMK A01 T02771027  RH  013%=      5-min Rain = 0
KCA1 292333Z 25008KT 28/M03 A3004 RMK A01 T02771030  RH  013%=      5-min Rain = 0
KCA1 292334Z 25007KT 28/M03 A3004 RMK A01 T02761029  RH  013%=      5-min Rain = 0
KCA1 292335Z 25006KT 28/M03 A3004 RMK A01 T02761027  RH  014%=      5-min Rain = 0
KCA1 292336Z 25005KT 28/M03 A3004 RMK A01 T02761025  RH  014%=      5-min Rain = 0
KCA1 292337Z 25006KT 28/M02 A3004 RMK A01 T02761024  RH  014%=      5-min Rain = 0
KCA1 292338Z 25006KT 28/M03 A3004 RMK A01 T02751026  RH  014%=      5-min Rain = 0
KCA1 292339Z 25005KT 28/M03 A3004 RMK A01 T02751025  RH  014%=      5-min Rain = 0
KCA1 292340Z 25005KT 27/M02 A3004 RMK A01 T02741024  RH  014%=      5-min Rain = 0
KCA1 292341Z 25005KT 27/M02 A3003 RMK A01 T02741024  RH  014%=      5-min Rain = 0
KCA1 292342Z 25005KT 27/M02 A3003 RMK A01 T02731022  RH  014%=      5-min Rain = 0
KCA1 292343Z 25005KT 27/M02 A3003 RMK A01 T02731022  RH  014%=      5-min Rain = 0
KCA1 292344Z 25004KT 27/M02 A3003 RMK A01 T02721021  RH  015%=      5-min Rain = 0
KCA1 292345Z 25005KT 27/M02 A3003 RMK A01 T02721020  RH  015%=      5-min Rain = 0
KCA1 292346Z 25005KT 27/M02 A3003 RMK A01 T02711019  RH  015%=      5-min Rain = 0
KCA1 292347Z 25004KT 27/M02 A3003 RMK A01 T02701017  RH  015%=      5-min Rain = 0
KCA1 292348Z 25004KT 27/M02 A3003 RMK A01 T02701015  RH  015%=      5-min Rain = 0
KCA1 292349Z 25004KT 27/M01 A3003 RMK A01 T02691014  RH  016%=      5-min Rain = 0
KCA1 292350Z 25004KT 27/M01 A3003 RMK A01 T02681014  RH  016%=      5-min Rain = 0
KCA1 292351Z 25004KT 27/M02 A3003 RMK A01 T02671015  RH  016%=      5-min Rain = 0
KCA1 292352Z 26004KT 27/M02 A3003 RMK A01 T02661015  RH  016%=      5-min Rain = 0
KCA1 292353Z 26004KT 27/M02 A3003 RMK A01 T02651015  RH  016%=      5-min Rain = 0
KCA1 292354Z 26004KT 26/M01 A3003 RMK A01 T02641014  RH  016%=      5-min Rain = 0
KCA1 292355Z 26004KT 26/M01 A3003 RMK A01 T02631014  RH  016%=      5-min Rain = 0
KCA1 292356Z 26004KT 26/M02 A3003 RMK A01 T02631015  RH  016%=      5-min Rain = 0
KCA1 292357Z 26004KT 26/M01 A3003 RMK A01 T02621014  RH  016%=      5-min Rain = 0
KCA1 292358Z 26004KT 26/M01 A3003 RMK A01 T02611014  RH  016%=      5-min Rain = 0
KCA1 292359Z 26004KT 26/M01 A3003 RMK A01 T02601014  RH  016%=      5-min Rain = 0
KCA1 300000Z 25004KT 26/M01 A3003 RMK A01 T02601013  RH  017%=      5-min Rain = 0
KCA1 300001Z 25004KT 26/M01 A3003 RMK A01 T02591013  RH  017%=      5-min Rain = 0
KCA1 300002Z 25004KT 26/M01 A3003 RMK A01 T02581013  RH  017%=      5-min Rain = 0
KCA1 300003Z 25004KT 26/M01 A3003 RMK A01 T02571013  RH  017%=      5-min Rain = 0
KCA1 300004Z 25005KT 26/M01 A3003 RMK A01 T02571014  RH  017%=      5-min Rain = 0
KCA1 300005Z 25005KT 26/M01 A3003 RMK A01 T02561014  RH  017%=      5-min Rain = 0
KCA1 300006Z 25005KT 26/M01 A3003 RMK A01 T02551014  RH  017%=      5-min Rain = 0
KCA1 300007Z 25005KT 25/M01 A3003 RMK A01 T02541014  RH  017%=      5-min Rain = 0
KCA1 300008Z 25005KT 25/M01 A3003 RMK A01 T02531014  RH  017%=      5-min Rain = 0
KCA1 300009Z 25005KT 25/M01 A3003 RMK A01 T02511014  RH  017%=      5-min Rain = 0
KCA1 300010Z 25004KT 25/M01 A3003 RMK A01 T02501014  RH  017%=      5-min Rain = 0
KCA1 300011Z 25005KT 25/M02 A3003 RMK A01 T02491015  RH  017%=      5-min Rain = 0
KCA1 300012Z 25005KT 25/M02 A3003 RMK A01 T02481016  RH  017%=      5-min Rain = 0
KCA1 300013Z 25005KT 25/M02 A3003 RMK A01 T02471017  RH  017%=      5-min Rain = 0
KCA1 300014Z 25004KT 25/M02 A3003 RMK A01 T02471017  RH  017%=      5-min Rain = 0
KCA1 300015Z 25004KT 25/M02 A3003 RMK A01 T02461017  RH  017%=      5-min Rain = 0
KCA1 300016Z 25004KT 25/M02 A3003 RMK A01 T02451018  RH  017%=      5-min Rain = 0
KCA1 300017Z 26004KT 25/M02 A3003 RMK A01 T02451018  RH  017%=      5-min Rain = 0
KCA1 300018Z 26004KT 25/M02 A3003 RMK A01 T02451018  RH  017%=      5-min Rain = 0
KCA1 300019Z 26004KT 25/M02 A3003 RMK A01 T02451018  RH  017%=      5-min Rain = 0
KCA1 300020Z 26004KT 25/M02 A3003 RMK A01 T02461019  RH  017%=      5-min Rain = 0
KCA1 300021Z 26004KT 25/M02 A3003 RMK A01 T02461018  RH  017%=      5-min Rain = 0
KCA1 300022Z 26004KT 25/M02 A3003 RMK A01 T02461019  RH  017%=      5-min Rain = 0
KCA1 300023Z 25004KT 25/M02 A3003 RMK A01 T02461019  RH  017%=      5-min Rain = 0
KCA1 300024Z 25004KT 25/M02 A3003 RMK A01 T02461019  RH  017%=      5-min Rain = 0
KCA1 300025Z 25004KT 25/M02 A3003 RMK A01 T02461019  RH  017%=      5-min Rain = 0
KCA1 300026Z 25003KT 25/M02 A3003 RMK A01 T02461019  RH  017%=      5-min Rain = 0
KCA1 300027Z 25004KT 25/M02 A3003 RMK A01 T02461019  RH  017%=      5-min Rain = 0
KCA1 300028Z 25004KT 25/M02 A3003 RMK A01 T02461019  RH  017%=      5-min Rain = 0
KCA1 300029Z 25003KT 25/M02 A3003 RMK A01 T02461019  RH  017%=      5-min Rain = 0
KCA1 300030Z 25004KT 25/M02 A3003 RMK A01 T02461019  RH  017%=      5-min Rain = 0
KCA1 300031Z 25003KT 25/M02 A3003 RMK A01 T02451018  RH  017%=      5-min Rain = 0
KCA1 300032Z 24003KT 25/M02 A3003 RMK A01 T02451018  RH  017%=      5-min Rain = 0
KCA1 300033Z 24003KT 24/M02 A3003 RMK A01 T02441017  RH  018%=      5-min Rain = 0
KCA1 300034Z 23004KT 24/M02 A3003 RMK A01 T02421018  RH  018%=      5-min Rain = 0
KCA1 300035Z 22003KT 24/M02 A3003 RMK A01 T02401018  RH  018%=      5-min Rain = 0
KCA1 300036Z 23003KT 24/M02 A3003 RMK A01 T02381018  RH  018%=      5-min Rain = 0
KCA1 300037Z 23004KT 24/M02 A3003 RMK A01 T02371017  RH  018%=      5-min Rain = 0
KCA1 300038Z 24004KT 24/M02 A3003 RMK A01 T02351017  RH  019%=      5-min Rain = 0
KCA1 300039Z 24004KT 23/M02 A3003 RMK A01 T02341018  RH  019%=      5-min Rain = 0
KCA1 300040Z 24004KT 23/M02 A3003 RMK A01 T02331017  RH  019%=      5-min Rain = 0
KCA1 300041Z 24004KT 23/M02 A3003 RMK A01 T02321017  RH  019%=      5-min Rain = 0
KCA1 300042Z 24004KT 23/M02 A3003 RMK A01 T02311017  RH  019%=      5-min Rain = 0
KCA1 300043Z 24004KT 23/M02 A3003 RMK A01 T02311019  RH  019%=      5-min Rain = 0
KCA1 300044Z 24004KT 23/M02 A3003 RMK A01 T02311018  RH  019%=      5-min Rain = 0
KCA1 300045Z 24004KT 23/M02 A3003 RMK A01 T02311019  RH  019%=      5-min Rain = 0
KCA1 300046Z 24004KT 23/M02 A3003 RMK A01 T02311019  RH  019%=      5-min Rain = 0
KCA1 300047Z 24004KT 23/M02 A3003 RMK A01 T02321020  RH  019%=      5-min Rain = 0
KCA1 300048Z 24004KT 23/M02 A3003 RMK A01 T02321020  RH  019%=      5-min Rain = 0
KCA1 300049Z 24004KT 23/M02 A3003 RMK A01 T02321020  RH  019%=      5-min Rain = 0
KCA1 300050Z 24004KT 23/M02 A3003 RMK A01 T02321020  RH  019%=      5-min Rain = 0
KCA1 300051Z 24004KT 23/M02 A3003 RMK A01 T02321020  RH  019%=      5-min Rain = 0
KCA1 300052Z 24004KT 23/M02 A3003 RMK A01 T02311020  RH  019%=      5-min Rain = 0
KCA1 300053Z 23004KT 23/M02 A3003 RMK A01 T02311020  RH  019%=      5-min Rain = 0
KCA1 300054Z 23003KT 23/M02 A3003 RMK A01 T02301021  RH  019%=      5-min Rain = 0
KCA1 300055Z 22003KT 23/M02 A3003 RMK A01 T02281021  RH  019%=      5-min Rain = 0
KCA1 300056Z 22003KT 23/M02 A3003 RMK A01 T02261021  RH  019%=      5-min Rain = 0
KCA1 300057Z 22003KT 23/M02 A3003 RMK A01 T02261021  RH  019%=      5-min Rain = 0
KCA1 300058Z 21003KT 23/M02 A3003 RMK A01 T02251020  RH  019%=      5-min Rain = 0
KCA1 300059Z 21003KT 23/M02 A3003 RMK A01 T02251019  RH  019%=      5-min Rain = 0
KCA1 300100Z 21003KT 23/M02 A3003 RMK A01 T02251019  RH  020%=      5-min Rain = 0
KCA1 300101Z 21003KT 23/M02 A3003 RMK A01 T02251019  RH  020%=      5-min Rain = 0
KCA1 300102Z 20003KT 22/M02 A3003 RMK A01 T02241019  RH  020%=      5-min Rain = 0
KCA1 300103Z 20002KT 23/M02 A3003 RMK A01 T02251018  RH  020%=      5-min Rain = 0
KCA1 300104Z 20003KT 23/M02 A3003 RMK A01 T02261019  RH  019%=      5-min Rain = 0
KCA1 300105Z 22004KT 23/M02 A3003 RMK A01 T02261018  RH  020%=      5-min Rain = 0
KCA1 300106Z 20002KT 23/M02 A3003 RMK A01 T02261020  RH  019%=      5-min Rain = 0
KCA1 300107Z 22002KT 23/M02 A3003 RMK A01 T02261019  RH  019%=      5-min Rain = 0
KCA1 300108Z 23002KT 23/M02 A3003 RMK A01 T02261020  RH  019%=      5-min Rain = 0
KCA1 300109Z 23002KT 23/M02 A3003 RMK A01 T02271023  RH  019%=      5-min Rain = 0
KCA1 300110Z 23002KT 23/M02 A3003 RMK A01 T02281023  RH  019%=      5-min Rain = 0
KCA1 300111Z 23002KT 23/M02 A3003 RMK A01 T02281022  RH  019%=      5-min Rain = 0
KCA1 300112Z 23002KT 23/M02 A3003 RMK A01 T02281022  RH  019%=      5-min Rain = 0
KCA1 300113Z 21001KT 23/M02 A3004 RMK A01 T02271022  RH  019%=      5-min Rain = 0
KCA1 300114Z 24002KT 23/M02 A3004 RMK A01 T02271022  RH  019%=      5-min Rain = 0
KCA1 300115Z 22002KT 23/M02 A3004 RMK A01 T02261023  RH  019%=      5-min Rain = 0
KCA1 300116Z 24001KT 23/M02 A3004 RMK A01 T02261023  RH  019%=      5-min Rain = 0
KCA1 300117Z 24001KT 23/M02 A3004 RMK A01 T02251024  RH  019%=      5-min Rain = 0
KCA1 300118Z 23003KT 23/M02 A3004 RMK A01 T02251024  RH  019%=      5-min Rain = 0
KCA1 300119Z 23003KT 22/M02 A3004 RMK A01 T02241024  RH  019%=      5-min Rain = 0
KCA1 300120Z 24002KT 22/M02 A3004 RMK A01 T02241024  RH  019%=      5-min Rain = 0
KCA1 300121Z 24002KT 22/M02 A3004 RMK A01 T02231024  RH  019%=      5-min Rain = 0
KCA1 300122Z 25002KT 22/M03 A3004 RMK A01 T02211025  RH  019%=      5-min Rain = 0
KCA1 300123Z 26002KT 22/M02 A3004 RMK A01 T02211024  RH  019%=      5-min Rain = 0
KCA1 300124Z 25002KT 22/M02 A3004 RMK A01 T02201024  RH  019%=      5-min Rain = 0
KCA1 300125Z 25002KT 22/M02 A3004 RMK A01 T02191023  RH  020%=      5-min Rain = 0
KCA1 300126Z 24002KT 22/M02 A3004 RMK A01 T02181023  RH  020%=      5-min Rain = 0
KCA1 300127Z 25002KT 22/M02 A3004 RMK A01 T02171023  RH  020%=      5-min Rain = 0
KCA1 300128Z 24002KT 22/M02 A3004 RMK A01 T02161023  RH  020%=      5-min Rain = 0
KCA1 300129Z 23002KT 22/M02 A3004 RMK A01 T02151023  RH  020%=      5-min Rain = 0
KCA1 300130Z 22002KT 21/M02 A3004 RMK A01 T02131024  RH  020%=      5-min Rain = 0
KCA1 300131Z 22002KT 21/M02 A3004 RMK A01 T02121024  RH  020%=      5-min Rain = 0
KCA1 300132Z 22001KT 21/M02 A3004 RMK A01 T02121024  RH  020%=      5-min Rain = 0
KCA1 300133Z 22001KT 21/M02 A3004 RMK A01 T02111024  RH  020%=      5-min Rain = 0
KCA1 300134Z 23002KT 21/M02 A3004 RMK A01 T02101024  RH  021%=      5-min Rain = 0
KCA1 300135Z 22002KT 21/M02 A3004 RMK A01 T02111024  RH  020%=      5-min Rain = 0
KCA1 300136Z 22002KT 21/M02 A3004 RMK A01 T02111024  RH  020%=      5-min Rain = 0
KCA1 300137Z 21002KT 21/M02 A3004 RMK A01 T02131023  RH  020%=      5-min Rain = 0
KCA1 300138Z 21002KT 21/M02 A3004 RMK A01 T02131023  RH  020%=      5-min Rain = 0
KCA1 300139Z 21001KT 21/M02 A3004 RMK A01 T02141022  RH  021%=      5-min Rain = 0
KCA1 300140Z 20001KT 21/M02 A3004 RMK A01 T02131021  RH  021%=      5-min Rain = 0
KCA1 300141Z 20001KT 21/M02 A3004 RMK A01 T02121021  RH  021%=      5-min Rain = 0
KCA1 300142Z 21001KT 21/M02 A3004 RMK A01 T02101021  RH  021%=      5-min Rain = 0
KCA1 300143Z 22001KT 21/M02 A3004 RMK A01 T02091022  RH  021%=      5-min Rain = 0
KCA1 300144Z 23001KT 21/M02 A3004 RMK A01 T02071022  RH  021%=      5-min Rain = 0
KCA1 300145Z 23001KT 21/M02 A3004 RMK A01 T02061022  RH  021%=      5-min Rain = 0
KCA1 300146Z 23002KT 21/M02 A3004 RMK A01 T02051022  RH  022%=      5-min Rain = 0
KCA1 300147Z 23002KT 20/M02 A3004 RMK A01 T02041023  RH  022%=      5-min Rain = 0
KCA1 300148Z 23003KT 20/M02 A3004 RMK A01 T02041023  RH  021%=      5-min Rain = 0
KCA1 300149Z 24002KT 21/M02 A3004 RMK A01 T02051024  RH  021%=      5-min Rain = 0
KCA1 300150Z 23002KT 21/M02 A3004 RMK A01 T02061024  RH  021%=      5-min Rain = 0
KCA1 300151Z 23002KT 21/M02 A3004 RMK A01 T02071024  RH  021%=      5-min Rain = 0
KCA1 300152Z 24002KT 21/M02 A3004 RMK A01 T02071024  RH  021%=      5-min Rain = 0
KCA1 300153Z 23002KT 21/M02 A3004 RMK A01 T02081024  RH  021%=      5-min Rain = 0
KCA1 300154Z 23002KT 21/M02 A3004 RMK A01 T02081024  RH  021%=      5-min Rain = 0
KCA1 300155Z 23002KT 21/M03 A3004 RMK A01 T02081025  RH  021%=      5-min Rain = 0
KCA1 300156Z 23001KT 21/M03 A3004 RMK A01 T02081025  RH  021%=      5-min Rain = 0
KCA1 300157Z 24002KT 21/M03 A3004 RMK A01 T02081025  RH  021%=      5-min Rain = 0
KCA1 300158Z 24002KT 21/M02 A3004 RMK A01 T02081024  RH  021%=      5-min Rain = 0
KCA1 300159Z 25002KT 21/M02 A3004 RMK A01 T02071024  RH  021%=      5-min Rain = 0
KCA1 300200Z 25002KT 21/M02 A3004 RMK A01 T02061024  RH  021%=      5-min Rain = 0
KCA1 300201Z 26001KT 21/M03 A3004 RMK A01 T02051025  RH  021%=      5-min Rain = 0
KCA1 300202Z 26001KT 20/M02 A3004 RMK A01 T02041024  RH  021%=      5-min Rain = 0
KCA1 300203Z 27001KT 20/M03 A3004 RMK A01 T02021025  RH  022%=      5-min Rain = 0
KCA1 300204Z 26001KT 20/M03 A3004 RMK A01 T02011025  RH  022%=      5-min Rain = 0
KCA1 300205Z 26002KT 20/M03 A3004 RMK A01 T02001025  RH  022%=      5-min Rain = 0
KCA1 300206Z 26002KT 20/M03 A3004 RMK A01 T01991025  RH  022%=      5-min Rain = 0
KCA1 300207Z 26002KT 20/M03 A3004 RMK A01 T01991025  RH  022%=      5-min Rain = 0
KCA1 300208Z 27001KT 20/M02 A3004 RMK A01 T01981024  RH  022%=      5-min Rain = 0
KCA1 300209Z 28001KT 20/M02 A3004 RMK A01 T01961024  RH  022%=      5-min Rain = 0
KCA1 300210Z 28001KT 19/M03 A3004 RMK A01 T01941025  RH  023%=      5-min Rain = 0
KCA1 300211Z 30001KT 19/M03 A3004 RMK A01 T01941025  RH  023%=      5-min Rain = 0
KCA1 300212Z 30001KT 19/M03 A3004 RMK A01 T01941025  RH  023%=      5-min Rain = 0
KCA1 300213Z 30001KT 19/M03 A3004 RMK A01 T01941025  RH  023%=      5-min Rain = 0
KCA1 300214Z 30002KT 19/M03 A3004 RMK A01 T01941025  RH  023%=      5-min Rain = 0
KCA1 300215Z 29002KT 19/M03 A3004 RMK A01 T01941025  RH  022%=      5-min Rain = 0
KCA1 300216Z 29002KT 20/M03 A3004 RMK A01 T01951025  RH  022%=      5-min Rain = 0
KCA1 300217Z 29002KT 20/M03 A3004 RMK A01 T01961026  RH  022%=      5-min Rain = 0
KCA1 300218Z 29002KT 20/M03 A3004 RMK A01 T01971026  RH  022%=      5-min Rain = 0
KCA1 300219Z 29002KT 20/M03 A3004 RMK A01 T01981026  RH  022%=      5-min Rain = 0
KCA1 300220Z 28002KT 20/M03 A3004 RMK A01 T01991026  RH  022%=      5-min Rain = 0
KCA1 300221Z 28002KT 20/M03 A3004 RMK A01 T02001026  RH  022%=      5-min Rain = 0
KCA1 300222Z 27002KT 20/M03 A3004 RMK A01 T02001026  RH  022%=      5-min Rain = 0
KCA1 300223Z 27002KT 20/M03 A3004 RMK A01 T02011026  RH  021%=      5-min Rain = 0
KCA1 300224Z 27002KT 20/M03 A3004 RMK A01 T02011026  RH  021%=      5-min Rain = 0
KCA1 300225Z 27002KT 20/M03 A3004 RMK A01 T02021026  RH  021%=      5-min Rain = 0
KCA1 300226Z 27002KT 20/M03 A3004 RMK A01 T02021027  RH  021%=      5-min Rain = 0
KCA1 300227Z 27002KT 20/M03 A3004 RMK A01 T02021026  RH  021%=      5-min Rain = 0
KCA1 300228Z 27002KT 20/M03 A3004 RMK A01 T02021026  RH  021%=      5-min Rain = 0
KCA1 300229Z 28002KT 20/M03 A3004 RMK A01 T02021026  RH  021%=      5-min Rain = 0
KCA1 300230Z 28002KT 20/M03 A3004 RMK A01 T02011027  RH  021%=      5-min Rain = 0
KCA1 300231Z 28002KT 20/M03 A3004 RMK A01 T02011026  RH  021%=      5-min Rain = 0
KCA1 300232Z 29001KT 20/M03 A3004 RMK A01 T02001026  RH  022%=      5-min Rain = 0
KCA1 300233Z 28001KT 20/M03 A3004 RMK A01 T01991026  RH  022%=      5-min Rain = 0
KCA1 300234Z 28002KT 20/M03 A3004 RMK A01 T01981026  RH  022%=      5-min Rain = 0
KCA1 300235Z 29002KT 20/M03 A3004 RMK A01 T01971026  RH  022%=      5-min Rain = 0
KCA1 300236Z 29001KT 20/M03 A3004 RMK A01 T01961025  RH  022%=      5-min Rain = 0
KCA1 300237Z 28001KT 20/M03 A3004 RMK A01 T01951026  RH  022%=      5-min Rain = 0
KCA1 300238Z 27002KT 20/M03 A3004 RMK A01 T01951027  RH  022%=      5-min Rain = 0
KCA1 300239Z 27002KT 20/M03 A3004 RMK A01 T01951026  RH  022%=      5-min Rain = 0
KCA1 300240Z 28001KT 20/M03 A3004 RMK A01 T01961026  RH  022%=      5-min Rain = 0
KCA1 300241Z 29002KT 20/M03 A3004 RMK A01 T01971025  RH  022%=      5-min Rain = 0
KCA1 300242Z 28002KT 20/M03 A3004 RMK A01 T01971025  RH  022%=      5-min Rain = 0
KCA1 300243Z 25002KT 20/M03 A3004 RMK A01 T01971025  RH  022%=      5-min Rain = 0
KCA1 300244Z 22002KT 20/M03 A3004 RMK A01 T01951025  RH  022%=      5-min Rain = 0
KCA1 300245Z 21002KT 19/M03 A3004 RMK A01 T01941025  RH  023%=      5-min Rain = 0
KCA1 300246Z 20003KT 19/M03 A3004 RMK A01 T01921025  RH  023%=      5-min Rain = 0
KCA1 300247Z 20002KT 19/M03 A3004 RMK A01 T01901025  RH  023%=      5-min Rain = 0
KCA1 300248Z 19002KT 19/M02 A3004 RMK A01 T01881024  RH  024%=      5-min Rain = 0
KCA1 300249Z 20002KT 19/M02 A3004 RMK A01 T01871024  RH  024%=      5-min Rain = 0
KCA1 300250Z 21002KT 19/M02 A3004 RMK A01 T01851024  RH  024%=      5-min Rain = 0
KCA1 300251Z 22002KT 18/M02 A3004 RMK A01 T01841024  RH  024%=      5-min Rain = 0
KCA1 300252Z 22002KT 18/M02 A3004 RMK A01 T01831024  RH  024%=      5-min Rain = 0
KCA1 300253Z 22002KT 18/M02 A3004 RMK A01 T01821024  RH  025%=      5-min Rain = 0
KCA1 300254Z 23001KT 18/M02 A3004 RMK A01 T01821023  RH  025%=      5-min Rain = 0
KCA1 300255Z 23001KT 18/M02 A3004 RMK A01 T01821023  RH  025%=      5-min Rain = 0
KCA1 300256Z 23000KT 18/M02 A3004 RMK A01 T01821023  RH  025%=      5-min Rain = 0
KCA1 300257Z 23000KT 18/M02 A3004 RMK A01 T01821023  RH  025%=      5-min Rain = 0
KCA1 300258Z 23001KT 18/M02 A3004 RMK A01 T01821024  RH  024%=      5-min Rain = 0
KCA1 300259Z 23000KT 18/M02 A3004 RMK A01 T01831024  RH  024%=      5-min Rain = 0
KCA1 300300Z 24001KT 18/M02 A3004 RMK A01 T01831024  RH  024%=      5-min Rain = 0
KCA1 300301Z 30001KT 18/M02 A3004 RMK A01 T01831023  RH  025%=      5-min Rain = 0
KCA1 300302Z 29000KT 18/M02 A3004 RMK A01 T01811022  RH  025%=      5-min Rain = 0
KCA1 300303Z 35001KT 18/M02 A3004 RMK A01 T01771022  RH  026%=      5-min Rain = 0
KCA1 300304Z 34001KT 17/M02 A3004 RMK A01 T01741022  RH  026%=      5-min Rain = 0
KCA1 300305Z 33001KT 17/M02 A3004 RMK A01 T01711023  RH  027%=      5-min Rain = 0
KCA1 300306Z 33002KT 17/M02 A3004 RMK A01 T01691023  RH  027%=      5-min Rain = 0
KCA1 300307Z 32002KT 17/M02 A3004 RMK A01 T01681023  RH  027%=      5-min Rain = 0
KCA1 300308Z 32002KT 17/M02 A3004 RMK A01 T01671023  RH  027%=      5-min Rain = 0
KCA1 300309Z 32002KT 17/M02 A3004 RMK A01 T01661023  RH  027%=      5-min Rain = 0
KCA1 300310Z 32003KT 17/M02 A3004 RMK A01 T01661022  RH  027%=      5-min Rain = 0
KCA1 300311Z 32003KT 17/M02 A3004 RMK A01 T01671023  RH  027%=      5-min Rain = 0
KCA1 300312Z 31003KT 17/M02 A3004 RMK A01 T01701023  RH  027%=      5-min Rain = 0
KCA1 300313Z 31003KT 17/M02 A3004 RMK A01 T01721022  RH  026%=      5-min Rain = 0
KCA1 300314Z 32003KT 18/M02 A3004 RMK A01 T01751022  RH  026%=      5-min Rain = 0
KCA1 300315Z 31003KT 18/M02 A3004 RMK A01 T01771022  RH  026%=      5-min Rain = 0
KCA1 300316Z 31003KT 18/M02 A3004 RMK A01 T01781022  RH  026%=      5-min Rain = 0
KCA1 300317Z 31003KT 18/M02 A3004 RMK A01 T01781022  RH  025%=      5-min Rain = 0
KCA1 300318Z 31004KT 18/M02 A3004 RMK A01 T01791022  RH  025%=      5-min Rain = 0
KCA1 300319Z 31004KT 18/M02 A3004 RMK A01 T01791022  RH  025%=      5-min Rain = 0
KCA1 300320Z 32004KT 18/M02 A3004 RMK A01 T01791022  RH  025%=      5-min Rain = 0
KCA1 300321Z 32004KT 18/M02 A3004 RMK A01 T01791022  RH  025%=      5-min Rain = 0
KCA1 300322Z 32004KT 18/M02 A3004 RMK A01 T01791022  RH  025%=      5-min Rain = 0
KCA1 300323Z 32004KT 18/M02 A3004 RMK A01 T01771022  RH  026%=      5-min Rain = 0
KCA1 300324Z 32004KT 18/M02 A3004 RMK A01 T01761022  RH  026%=      5-min Rain = 0
KCA1 300325Z 31004KT 18/M02 A3004 RMK A01 T01751023  RH  026%=      5-min Rain = 0
KCA1 300326Z 31004KT 18/M02 A3004 RMK A01 T01751023  RH  026%=      5-min Rain = 0
KCA1 300327Z 30005KT 18/M02 A3004 RMK A01 T01751023  RH  026%=      5-min Rain = 0
KCA1 300328Z 31004KT 18/M02 A3004 RMK A01 T01751024  RH  026%=      5-min Rain = 0
KCA1 300329Z 30004KT 18/M02 A3004 RMK A01 T01751024  RH  026%=      5-min Rain = 0
KCA1 300330Z 30005KT 18/M02 A3004 RMK A01 T01761024  RH  026%=      5-min Rain = 0
KCA1 300331Z 30004KT 18/M02 A3004 RMK A01 T01751024  RH  026%=      5-min Rain = 0
KCA1 300332Z 30004KT 18/M02 A3004 RMK A01 T01751024  RH  026%=      5-min Rain = 0
KCA1 300333Z 31004KT 17/M03 A3004 RMK A01 T01741025  RH  026%=      5-min Rain = 0
KCA1 300334Z 31004KT 17/M02 A3004 RMK A01 T01731024  RH  026%=      5-min Rain = 0
KCA1 300335Z 31004KT 17/M02 A3004 RMK A01 T01731024  RH  026%=      5-min Rain = 0
KCA1 300336Z 31005KT 17/M02 A3004 RMK A01 T01721024  RH  026%=      5-min Rain = 0
KCA1 300337Z 31005KT 17/M02 A3004 RMK A01 T01711024  RH  026%=      5-min Rain = 0
KCA1 300338Z 31005KT 17/M02 A3004 RMK A01 T01711024  RH  026%=      5-min Rain = 0
KCA1 300339Z 31005KT 17/M02 A3004 RMK A01 T01701024  RH  026%=      5-min Rain = 0
KCA1 300340Z 31006KT 17/M02 A3004 RMK A01 T01691024  RH  027%=      5-min Rain = 0
KCA1 300341Z 31005KT 17/M02 A3004 RMK A01 T01681024  RH  027%=      5-min Rain = 0
KCA1 300342Z 30005KT 17/M02 A3004 RMK A01 T01681024  RH  027%=      5-min Rain = 0
KCA1 300343Z 30006KT 17/M02 A3004 RMK A01 T01671024  RH  027%=      5-min Rain = 0
KCA1 300344Z 31005KT 17/M02 A3004 RMK A01 T01671024  RH  027%=      5-min Rain = 0
KCA1 300345Z 30005KT 17/M02 A3004 RMK A01 T01671024  RH  027%=      5-min Rain = 0
KCA1 300346Z 30005KT 17/M02 A3004 RMK A01 T01671024  RH  027%=      5-min Rain = 0
KCA1 300347Z 30005KT 17/M02 A3004 RMK A01 T01661024  RH  027%=      5-min Rain = 0
KCA1 300348Z 30005KT 17/M02 A3004 RMK A01 T01661024  RH  027%=      5-min Rain = 0
KCA1 300349Z 30005KT 17/M02 A3004 RMK A01 T01651024  RH  027%=      5-min Rain = 0
KCA1 300350Z 30004KT 17/M02 A3004 RMK A01 T01651024  RH  027%=      5-min Rain = 0
KCA1 300351Z 30004KT 16/M02 A3004 RMK A01 T01641024  RH  027%=      5-min Rain = 0
KCA1 300352Z 30005KT 16/M02 A3004 RMK A01 T01641024  RH  028%=      5-min Rain = 0
KCA1 300353Z 30005KT 16/M02 A3004 RMK A01 T01631024  RH  028%=      5-min Rain = 0
KCA1 300354Z 29005KT 16/M02 A3004 RMK A01 T01631024  RH  028%=      5-min Rain = 0
KCA1 300355Z 30005KT 16/M02 A3004 RMK A01 T01631024  RH  028%=      5-min Rain = 0
KCA1 300356Z 30005KT 16/M02 A3004 RMK A01 T01631024  RH  028%=      5-min Rain = 0
KCA1 300357Z 30005KT 16/M02 A3004 RMK A01 T01621023  RH  028%=      5-min Rain = 0
KCA1 300358Z 30004KT 16/M02 A3004 RMK A01 T01611024  RH  028%=      5-min Rain = 0
KCA1 300359Z 30005KT 16/M02 A3004 RMK A01 T01601024  RH  028%=      5-min Rain = 0
KCA1 300400Z 30004KT 16/M02 A3004 RMK A01 T01591024  RH  028%=      5-min Rain = 0
KCA1 300401Z 29004KT 16/M02 A3004 RMK A01 T01591024  RH  028%=      5-min Rain = 0
KCA1 300402Z 30004KT 16/M02 A3004 RMK A01 T01591024  RH  029%=      5-min Rain = 0
KCA1 300403Z 30004KT 16/M02 A3004 RMK A01 T01581024  RH  029%=      5-min Rain = 0
KCA1 300404Z 30004KT 16/M02 A3004 RMK A01 T01571024  RH  029%=      5-min Rain = 0
KCA1 300405Z 30004KT 16/M02 A3004 RMK A01 T01561024  RH  029%=      5-min Rain = 0
KCA1 300406Z 30004KT 16/M02 A3004 RMK A01 T01561024  RH  029%=      5-min Rain = 0
KCA1 300407Z 30004KT 16/M02 A3004 RMK A01 T01551024  RH  029%=      5-min Rain = 0
KCA1 300408Z 30004KT 16/M02 A3004 RMK A01 T01551024  RH  029%=      5-min Rain = 0
KCA1 300409Z 30004KT 16/M02 A3004 RMK A01 T01551024  RH  029%=      5-min Rain = 0
KCA1 300410Z 30004KT 15/M02 A3003 RMK A01 T01541024  RH  029%=      5-min Rain = 0
KCA1 300411Z 30005KT 15/M02 A3003 RMK A01 T01541024  RH  029%=      5-min Rain = 0
KCA1 300412Z 30005KT 15/M02 A3003 RMK A01 T01541024  RH  029%=      5-min Rain = 0
KCA1 300413Z 30005KT 15/M02 A3004 RMK A01 T01541024  RH  029%=      5-min Rain = 0
KCA1 300414Z 30005KT 15/M02 A3004 RMK A01 T01531023  RH  030%=      5-min Rain = 0
KCA1 300415Z 31005KT 15/M02 A3004 RMK A01 T01531024  RH  030%=      5-min Rain = 0
KCA1 300416Z 30005KT 15/M02 A3003 RMK A01 T01521024  RH  030%=      5-min Rain = 0
KCA1 300417Z 30005KT 15/M02 A3003 RMK A01 T01531024  RH  030%=      5-min Rain = 0
KCA1 300418Z 30005KT 15/M02 A3003 RMK A01 T01531024  RH  030%=      5-min Rain = 0
KCA1 300419Z 30005KT 15/M02 A3003 RMK A01 T01531024  RH  029%=      5-min Rain = 0
KCA1 300420Z 30005KT 15/M02 A3003 RMK A01 T01541024  RH  029%=      5-min Rain = 0
KCA1 300421Z 30006KT 15/M02 A3003 RMK A01 T01531024  RH  029%=      5-min Rain = 0
KCA1 300422Z 30005KT 15/M02 A3004 RMK A01 T01541024  RH  029%=      5-min Rain = 0
KCA1 300423Z 30006KT 15/M02 A3004 RMK A01 T01531024  RH  029%=      5-min Rain = 0
KCA1 300424Z 30005KT 15/M02 A3004 RMK A01 T01531024  RH  030%=      5-min Rain = 0
KCA1 300425Z 30005KT 15/M02 A3004 RMK A01 T01531024  RH  030%=      5-min Rain = 0
KCA1 300426Z 30005KT 15/M02 A3004 RMK A01 T01521024  RH  030%=      5-min Rain = 0
KCA1 300427Z 31006KT 15/M02 A3004 RMK A01 T01521024  RH  030%=      5-min Rain = 0
KCA1 300428Z 31005KT 15/M02 A3003 RMK A01 T01521024  RH  030%=      5-min Rain = 0
KCA1 300429Z 31005KT 15/M02 A3003 RMK A01 T01521024  RH  030%=      5-min Rain = 0
KCA1 300430Z 31005KT 15/M02 A3003 RMK A01 T01511024  RH  030%=      5-min Rain = 0
KCA1 300431Z 31005KT 15/M02 A3003 RMK A01 T01511024  RH  030%=      5-min Rain = 0
KCA1 300432Z 30005KT 15/M02 A3003 RMK A01 T01511024  RH  030%=      5-min Rain = 0
KCA1 300433Z 31005KT 15/M02 A3004 RMK A01 T01501024  RH  030%=      5-min Rain = 0
KCA1 300434Z 31005KT 15/M02 A3004 RMK A01 T01501024  RH  030%=      5-min Rain = 0
KCA1 300435Z 31006KT 15/M03 A3004 RMK A01 T01501025  RH  030%=      5-min Rain = 0
KCA1 300436Z 31005KT 15/M02 A3004 RMK A01 T01501024  RH  030%=      5-min Rain = 0
KCA1 300437Z 31006KT 15/M03 A3004 RMK A01 T01491025  RH  030%=      5-min Rain = 0
KCA1 300438Z 31006KT 15/M02 A3004 RMK A01 T01491024  RH  030%=      5-min Rain = 0
KCA1 300439Z 31006KT 15/M02 A3004 RMK A01 T01491024  RH  030%=      5-min Rain = 0
KCA1 300440Z 31006KT 15/M03 A3004 RMK A01 T01481025  RH  030%=      5-min Rain = 0
KCA1 300441Z 30006KT 15/M03 A3004 RMK A01 T01481025  RH  030%=      5-min Rain = 0
KCA1 300442Z 30006KT 15/M03 A3004 RMK A01 T01481025  RH  030%=      5-min Rain = 0
KCA1 300443Z 30006KT 15/M03 A3004 RMK A01 T01481025  RH  030%=      5-min Rain = 0
KCA1 300444Z 31006KT 15/M03 A3004 RMK A01 T01491025  RH  030%=      5-min Rain = 0
KCA1 300445Z 31006KT 15/M03 A3004 RMK A01 T01491026  RH  030%=      5-min Rain = 0
KCA1 300446Z 30006KT 15/M03 A3004 RMK A01 T01491026  RH  030%=      5-min Rain = 0
KCA1 300447Z 30006KT 15/M03 A3004 RMK A01 T01491026  RH  030%=      5-min Rain = 0
KCA1 300448Z 30006KT 15/M03 A3004 RMK A01 T01491026  RH  030%=      5-min Rain = 0
KCA1 300449Z 31006KT 15/M03 A3004 RMK A01 T01491026  RH  030%=      5-min Rain = 0
KCA1 300450Z 31006KT 15/M03 A3004 RMK A01 T01501026  RH  030%=      5-min Rain = 0
KCA1 300451Z 31006KT 15/M03 A3004 RMK A01 T01501027  RH  029%=      5-min Rain = 0
KCA1 300452Z 31006KT 15/M03 A3003 RMK A01 T01501027  RH  029%=      5-min Rain = 0
KCA1 300453Z 31006KT 15/M03 A3003 RMK A01 T01511027  RH  029%=      5-min Rain = 0
KCA1 300454Z 31007KT 15/M03 A3003 RMK A01 T01511027  RH  029%=      5-min Rain = 0
KCA1 300455Z 31007KT 15/M03 A3003 RMK A01 T01511028  RH  029%=      5-min Rain = 0
KCA1 300456Z 30007KT 15/M03 A3003 RMK A01 T01511028  RH  029%=      5-min Rain = 0
KCA1 300457Z 31007KT 15/M03 A3003 RMK A01 T01511028  RH  029%=      5-min Rain = 0
KCA1 300458Z 30007KT 15/M03 A3003 RMK A01 T01511028  RH  029%=      5-min Rain = 0
KCA1 300459Z 30007KT 15/M03 A3003 RMK A01 T01511028  RH  029%=      5-min Rain = 0

Page generated in 0.0702 seconds.